KC5DAQ-26 Weather Reports


time (UTC)temp
C
wind
direction
speed
KPH
gust
KPH
rain 1hr
cm
rain 24hr
cm
rain mn
cm
humidity
%
barometer
mb
20240418162501 28 47 3.2 16.1 0.00 0.00 0.00 77 1018.5
20240418162404 27 34 4.8 16.1 0.00 0.00 0.00 76 1018.5
20240418162301 27 111 3.2 8.0 0.00 0.00 0.00 77 1018.6
20240418162202 27 92 3.2 8.0 0.00 0.00 0.00 77 1018.5
20240418162103 27 11 3.2 8.0 0.00 0.00 0.00 78 1018.4
20240418162004 27 117 1.6 8.0 0.00 0.00 0.00 78 1018.5
20240418161902 27 79 1.6 8.0 0.00 0.00 0.00 79 1018.4
20240418161802 27 102 3.2 8.0 0.00 0.00 0.00 78 1018.4
20240418161703 27 78 3.2 8.0 0.00 0.00 0.00 78 1018.4
20240418161602 27 75 3.2 11.3 0.00 0.00 0.00 79 1018.5
20240418161502 27 44 3.2 11.3 0.00 0.00 0.00 80 1018.4
20240418161403 27 124 3.2 11.3 0.00 0.00 0.00 79 1018.4
20240418161302 27 298 1.6 11.3 0.00 0.00 0.00 78 1018.5
20240418161202 27 42 1.6 11.3 0.00 0.00 0.00 78 1018.5
20240418161103 27 162 3.2 11.3 0.00 0.00 0.00 78 1018.5
20240418161003 27 42 3.2 11.3 0.00 0.00 0.00 79 1018.6
20240418160902 27 152 4.8 11.3 0.00 0.00 0.00 78 1018.6
20240418160803 27 44 4.8 11.3 0.00 0.00 0.00 79 1018.6
20240418160702 27 87 3.2 11.3 0.00 0.00 0.00 80 1018.6
20240418160602 27 41 3.2 11.3 0.00 0.00 0.00 80 1018.6
20240418160502 27 103 3.2 11.3 0.00 0.00 0.00 80 1018.6
20240418160403 26 110 4.8 11.3 0.00 0.00 0.00 81 1018.5
20240418160302 26 117 4.8 11.3 0.00 0.00 0.00 81 1018.5
20240418160203 26 24 4.8 9.7 0.00 0.00 0.00 81 1018.4
20240418160102 26 117 3.2 9.7 0.00 0.00 0.00 81 1018.5
20240418160002 26 61 3.2 9.7 0.00 0.00 0.00 81 1018.6
20240418155902 26 68 4.8 9.7 0.00 0.00 0.00 80 1018.5
20240418155802 27 162 4.8 9.7 0.00 0.00 0.00 80 1018.4
20240418155703 27 185 4.8 9.7 0.00 0.00 0.00 80 1018.4
20240418155602 27 138 3.2 9.7 0.00 0.00 0.00 80 1018.4
20240418155503 27 149 3.2 9.7 0.00 0.00 0.00 82 1018.4
20240418155401 26 48 3.2 9.7 0.00 0.00 0.00 82 1018.4
20240418155303 26 73 3.2 9.7 0.00 0.00 0.00 81 1018.4
20240418155202 26 134 1.6 6.4 0.00 0.00 0.00 82 1018.4
20240418155102 26 134 1.6 6.4 0.00 0.00 0.00 82 1018.5
20240418155003 26 134 3.2 6.4 0.00 0.00 0.00 82 1018.6
20240418154902 26 137 1.6 6.4 0.00 0.00 0.00 82 1018.6
20240418154802 26 24 1.6 6.4 0.00 0.00 0.00 82 1018.6
20240418154703 26 1 1.6 9.7 0.00 0.00 0.00 82 1018.7
20240418154602 26 0 3.2 9.7 0.00 0.00 0.00 81 1018.6
20240418154502 26 54 3.2 9.7 0.00 0.00 0.00 82 1018.6
20240418154401 26 111 1.6 9.7 0.00 0.00 0.00 83 1018.6
20240418154303 26 110 3.2 9.7 0.00 0.00 0.00 82 1018.6
20240418154202 26 59 4.8 9.7 0.00 0.00 0.00 82 1018.6
20240418154102 26 54 4.8 9.7 0.00 0.00 0.00 82 1018.6
20240418154003 26 51 3.2 9.7 0.00 0.00 0.00 84 1018.6
20240418153903 26 80 4.8 9.7 0.00 0.00 0.00 83 1018.7
20240418153802 26 106 6.4 9.7 0.00 0.00 0.00 84 1018.6
20240418153702 26 202 6.4 9.7 0.00 0.00 0.00 84 1018.5
20240418153603 26 185 4.8 9.7 0.00 0.00 0.00 84 1018.6
20240418153502 26 100 3.2 9.7 0.00 0.00 0.00 84 1018.5
20240418153401 26 130 3.2 11.3 0.00 0.00 0.00 83 1018.6
20240418153303 26 109 4.8 11.3 0.00 0.00 0.00 84 1018.6
20240418153202 26 152 4.8 11.3 0.00 0.00 0.00 84 1018.5
20240418153102 26 28 4.8 11.3 0.00 0.00 0.00 84 1018.5
20240418153003 26 309 3.2 11.3 0.00 0.00 0.00 84 1018.5
20240418152903 26 147 3.2 11.3 0.00 0.00 0.00 84 1018.5
20240418152802 26 144 4.8 11.3 0.00 0.00 0.00 83 1018.5
20240418152702 26 190 6.4 11.3 0.00 0.00 0.00 83 1018.5
20240418152603 26 176 6.4 11.3 0.00 0.00 0.00 83 1018.4
20240418152502 26 173 4.8 11.3 0.00 0.00 0.00 83 1018.4
20240418152402 26 182 3.2 8.0 0.00 0.00 0.00 84 1018.5
20240418152303 26 63 3.2 8.0 0.00 0.00 0.00 84 1018.5
20240418152202 26 89 3.2 8.0 0.00 0.00 0.00 85 1018.4
20240418152101 26 134 3.2 8.0 0.00 0.00 0.00 85 1018.5
20240418152001 26 0 3.2 8.0 0.00 0.00 0.00 85 1018.4
20240418151903 26 124 3.2 8.0 0.00 0.00 0.00 85 1018.5
20240418151804 26 161 3.2 8.0 0.00 0.00 0.00 85 1018.6
20240418151702 26 158 3.2 9.7 0.00 0.00 0.00 85 1018.6
20240418151603 26 96 1.6 9.7 0.00 0.00 0.00 85 1018.6
20240418151503 26 100 1.6 9.7 0.00 0.00 0.00 85 1018.6
20240418151403 26 99 1.6 9.7 0.00 0.00 0.00 85 1018.6
20240418151301 26 99 3.2 9.7 0.00 0.00 0.00 85 1018.6
20240418151202 26 118 3.2 9.7 0.00 0.00 0.00 86 1018.6
20240418151102 26 44 1.6 9.7 0.00 0.00 0.00 86 1018.6
20240418151001 25 107 3.2 9.7 0.00 0.00 0.00 85 1018.6
20240418150903 26 109 3.2 9.7 0.00 0.00 0.00 85 1018.5
20240418150801 26 134 4.8 9.7 0.00 0.00 0.00 86 1018.5
20240418150702 26 120 3.2 8.0 0.00 0.00 0.00 87 1018.5
20240418150603 25 144 1.6 8.0 0.00 0.00 0.00 87 1018.4
20240418150505 25 144 1.6 8.0 0.00 0.00 0.00 88 1018.4
20240418150402 25 128 0.0 8.0 0.00 0.00 0.00 88 1018.4
20240418150301 25 120 0.0 8.0 0.00 0.00 0.00 89 1018.4
20240418150203 25 120 1.6 8.0 0.00 0.00 0.00 88 1018.3
20240418150104 25 114 1.6 8.0 0.00 0.00 0.00 89 1018.4
20240418150004 25 118 3.2 8.0 0.00 0.00 0.00 89 1018.3
20240418145904 25 118 3.2 8.0 0.00 0.00 0.00 88 1018.3
20240418145802 25 109 3.2 8.0 0.00 0.00 0.00 89 1018.3
20240418145718 25 116 1.6 8.0 0.00 0.00 0.00 89 1018.2
20240418145602 25 117 1.6 8.0 0.00 0.00 0.00 90 1018.2
20240418145505 25 82 1.6 8.0 0.00 0.00 0.00 90 1018.2
20240418145403 25 82 3.2 8.0 0.00 0.00 0.00 90 1018.2
20240418145302 25 102 3.2 8.0 0.00 0.00 0.00 90 1018.1
20240418145202 24 109 3.2 8.0 0.00 0.00 0.00 90 1018.2
20240418145103 24 189 4.8 8.0 0.00 0.00 0.00 90 1018.2
20240418145003 24 151 3.2 8.0 0.00 0.00 0.00 91 1018.2
20240418144901 24 186 1.6 6.4 0.00 0.00 0.00 91 1018.2
20240418144802 24 186 3.2 6.4 0.00 0.00 0.00 91 1018.2
20240418144703 24 121 3.2 6.4 0.00 0.00 0.00 91 1018.3
20240418144601 24 130 3.2 6.4 0.00 0.00 0.00 91 1018.3
20240418144504 24 144 3.2 6.4 0.00 0.00 0.00 91 1018.4
20240418144402 24 144 3.2 6.4 0.00 0.00 0.00 91 1018.5
20240418144302 24 125 1.6 6.4 0.00 0.00 0.00 91 1018.5
20240418144203 24 141 1.6 4.8 0.00 0.00 0.00 91 1018.5
20240418144102 24 135 3.2 4.8 0.00 0.00 0.00 91 1018.5
20240418144005 24 135 1.6 4.8 0.00 0.00 0.00 91 1018.4
20240418143903 24 128 1.6 4.8 0.00 0.00 0.00 91 1018.4
20240418143802 24 128 1.6 4.8 0.00 0.00 0.00 91 1018.4
20240418143702 24 128 3.2 4.8 0.00 0.00 0.00 91 1018.4
20240418143604 24 127 3.2 4.8 0.00 0.00 0.00 91 1018.4
20240418143504 24 128 1.6 3.2 0.00 0.00 0.00 91 1018.4
20240418143402 24 133 1.6 4.8 0.00 0.00 0.00 91 1018.4
20240418143304 24 134 1.6 8.0 0.00 0.00 0.00 91 1018.4
20240418143202 24 186 1.6 8.0 0.00 0.00 0.00 91 1018.4
20240418143102 24 188 1.6 8.0 0.00 0.00 0.00 91 1018.4
20240418143003 24 207 0.0 8.0 0.00 0.00 0.00 90 1018.4
20240418142901 24 207 1.6 8.0 0.00 0.00 0.00 90 1018.4
20240418142804 24 219 1.6 8.0 0.00 0.00 0.00 90 1018.3
20240418142701 24 233 0.0 8.0 0.00 0.00 0.00 90 1018.2
20240418142604 24 233 3.2 8.0 0.00 0.00 0.00 90 1018.3
20240418142503 24 286 3.2 8.0 0.00 0.00 0.00 90 1018.4
20240418142403 24 295 3.2 8.0 0.00 0.00 0.00 91 1018.3
20240418142303 24 188 3.2 8.0 0.00 0.00 0.00 91 1018.3
20240418142202 24 180 1.6 8.0 0.00 0.00 0.00 90 1018.2
20240418142102 24 159 1.6 8.0 0.00 0.00 0.00 90 1018.2
20240418142002 24 159 3.2 8.0 0.00 0.00 0.00 90 1018.1
20240418141903 24 220 1.6 8.0 0.00 0.00 0.00 90 1018.0
20240418141804 24 58 3.2 8.0 0.00 0.00 0.00 90 1017.9
20240418141705 24 55 3.2 8.0 0.00 0.00 0.00 91 1017.8
20240418141604 24 51 1.6 6.4 0.00 0.00 0.00 91 1017.8
20240418141502 24 51 3.2 6.4 0.00 0.00 0.00 91 1017.9
20240418141404 24 103 3.2 6.4 0.00 0.00 0.00 91 1018.0
20240418141304 24 135 3.2 6.4 0.00 0.00 0.00 91 1018.0
20240418141202 24 35 1.6 6.4 0.00 0.00 0.00 91 1018.0
20240418141102 24 133 1.6 4.8 0.00 0.00 0.00 91 1018.0
20240418141003 24 131 1.6 4.8 0.00 0.00 0.00 91 1018.0
20240418140903 24 69 3.2 4.8 0.00 0.00 0.00 91 1018.1
20240418140803 24 106 1.6 4.8 0.00 0.00 0.00 91 1018.2
20240418140702 24 140 1.6 4.8 0.00 0.00 0.00 91 1018.2
20240418140602 24 131 0.0 4.8 0.00 0.00 0.00 91 1018.2
20240418140504 24 131 1.6 4.8 0.00 0.00 0.00 91 1018.1
20240418140403 24 131 1.6 6.4 0.00 0.00 0.00 91 1018.2
20240418140303 24 180 0.0 6.4 0.00 0.00 0.00 91 1018.2
20240418140202 24 82 0.0 6.4 0.00 0.00 0.00 91 1018.2
20240418140102 24 82 0.0 6.4 0.00 0.00 0.00 91 1018.2
20240418140003 24 82 1.6 6.4 0.00 0.00 0.00 91 1018.2
20240418135904 24 66 0.0 6.4 0.00 0.00 0.00 91 1018.2
20240418135803 24 68 1.6 6.4 0.00 0.00 0.00 91 1018.3
20240418135703 24 68 3.2 6.4 0.00 0.00 0.00 91 1018.3
20240418135603 24 120 3.2 6.4 0.00 0.00 0.00 92 1018.2
20240418135501 24 130 3.2 6.4 0.00 0.00 0.00 92 1018.2
20240418135403 24 118 0.0 6.4 0.00 0.00 0.00 92 1018.2
20240418135303 24 76 0.0 6.4 0.00 0.00 0.00 92 1018.1
20240418135204 24 76 3.2 6.4 0.00 0.00 0.00 91 1018.1
20240418135103 24 73 3.2 6.4 0.00 0.00 0.00 92 1018.0
20240418135003 24 212 0.0 4.8 0.00 0.00 0.00 92 1018.0
20240418134901 24 159 1.6 4.8 0.00 0.00 0.00 92 1018.0
20240418134803 24 159 3.2 4.8 0.00 0.00 0.00 92 1018.1
20240418134703 24 276 3.2 4.8 0.00 0.00 0.00 92 1018.0
20240418134603 24 172 1.6 4.8 0.00 0.00 0.00 92 1018.0
20240418134504 24 171 1.6 4.8 0.00 0.00 0.00 92 1018.0
20240418134402 24 171 1.6 8.0 0.00 0.00 0.00 92 1018.0
20240418134303 24 159 1.6 8.0 0.00 0.00 0.00 92 1018.0
20240418134202 24 125 1.6 8.0 0.00 0.00 0.00 92 1018.1
20240418134102 24 116 0.0 8.0 0.00 0.00 0.00 92 1018.0
20240418134005 24 125 0.0 8.0 0.00 0.00 0.00 92 1018.1
20240418133902 24 127 0.0 8.0 0.00 0.00 0.00 92 1018.1
20240418133803 24 127 1.6 8.0 0.00 0.00 0.00 92 1018.0
20240418133703 24 127 3.2 8.0 0.00 0.00 0.00 92 1017.8
20240418133602 24 127 3.2 8.0 0.00 0.00 0.00 92 1017.8
20240418133503 24 124 3.2 8.0 0.00 0.00 0.00 92 1017.8
20240418133403 24 120 3.2 6.4 0.00 0.00 0.00 92 1017.8
20240418133304 24 123 1.6 6.4 0.00 0.00 0.00 92 1017.7
20240418133203 24 21 3.2 6.4 0.00 0.00 0.00 92 1017.8
20240418133104 24 21 3.2 6.4 0.00 0.00 0.00 92 1017.7
20240418133004 24 21 3.2 6.4 0.00 0.00 0.00 92 1017.7
20240418132903 24 21 3.2 6.4 0.00 0.00 0.00 92 1017.7
20240418132803 24 155 3.2 6.4 0.00 0.00 0.00 93 1017.6
20240418132702 24 176 1.6 6.4 0.00 0.00 0.00 93 1017.7
20240418132604 24 147 3.2 6.4 0.00 0.00 0.00 93 1017.7
20240418132504 24 66 1.6 6.4 0.00 0.00 0.00 93 1017.7
20240418132402 23 145 0.0 6.4 0.00 0.00 0.00 93 1017.7
20240418132303 23 145 0.0 6.4 0.00 0.00 0.00 93 1017.7
20240418132203 23 145 1.6 6.4 0.00 0.00 0.00 93 1017.7
20240418132103 23 145 1.6 6.4 0.00 0.00 0.00 93 1017.7
20240418132003 23 130 0.0 6.4 0.00 0.00 0.00 93 1017.7
20240418131902 23 130 0.0 6.4 0.00 0.00 0.00 93 1017.7
20240418131802 23 130 0.0 6.4 0.00 0.00 0.00 93 1017.7
20240418131703 23 130 3.2 6.4 0.00 0.00 0.00 93 1017.8
20240418131602 23 130 1.6 6.4 0.00 0.00 0.00 93 1017.8
20240418131501 23 169 0.0 4.8 0.00 0.00 0.00 93 1017.8
20240418131402 23 90 0.0 4.8 0.00 0.00 0.00 93 1017.7
20240418131304 23 92 0.0 4.8 0.00 0.00 0.00 93 1017.7
20240418131204 23 90 1.6 4.8 0.00 0.00 0.00 93 1017.7
20240418131104 23 102 1.6 4.8 0.00 0.00 0.00 93 1017.7
20240418131002 23 99 1.6 4.8 0.00 0.00 0.00 93 1017.8
20240418130903 23 96 1.6 3.2 0.00 0.00 0.00 93 1017.7
20240418130802 23 217 0.0 3.2 0.00 0.00 0.00 94 1017.8
20240418130704 23 217 0.0 3.2 0.00 0.00 0.00 94 1017.8
20240418130603 23 217 0.0 3.2 0.00 0.00 0.00 94 1017.8
20240418130503 23 217 0.0 3.2 0.00 0.00 0.00 94 1017.8
20240418130403 23 217 1.6 3.2 0.00 0.00 0.00 94 1017.8
20240418130304 23 219 0.0 3.2 0.00 0.00 0.00 94 1017.8
20240418130202 23 219 0.0 3.2 0.00 0.00 0.00 94 1017.8
20240418130101 23 219 1.6 3.2 0.00 0.00 0.00 94 1017.7
20240418130002 23 219 0.0 3.2 0.00 0.00 0.00 94 1017.7
20240418125904 23 220 0.0 3.2 0.00 0.00 0.00 94 1017.8
20240418125802 23 220 0.0 3.2 0.00 0.00 0.00 94 1017.7
20240418125703 23 220 0.0 3.2 0.00 0.00 0.00 94 1017.7
20240418125604 23 220 0.0 3.2 0.00 0.00 0.00 94 1017.7
20240418125501 23 220 0.0 3.2 0.00 0.00 0.00 94 1017.7
20240418125404 23 224 0.0 3.2 0.00 0.00 0.00 94 1017.7
20240418125302 23 154 0.0 3.2 0.00 0.00 0.00 94 1017.7
20240418125202 23 154 1.6 3.2 0.00 0.00 0.00 93 1017.7
20240418125103 23 106 0.0 3.2 0.00 0.00 0.00 93 1017.6
20240418125001 23 106 0.0 4.8 0.00 0.00 0.00 94 1017.5
20240418124903 23 106 0.0 4.8 0.00 0.00 0.00 94 1017.6
20240418124804 23 106 0.0 4.8 0.00 0.00 0.00 94 1017.5
20240418124702 23 104 0.0 4.8 0.00 0.00 0.00 93 1017.4
20240418124602 23 104 0.0 4.8 0.00 0.00 0.00 94 1017.5
20240418124502 23 104 0.0 6.4 0.00 0.00 0.00 94 1017.4
20240418124402 23 104 1.6 6.4 0.00 0.00 0.00 93 1017.4
20240418124302 23 131 1.6 6.4 0.00 0.00 0.00 94 1017.4
20240418124203 23 140 1.6 6.4 0.00 0.00 0.00 94 1017.5
20240418124103 23 140 1.6 6.4 0.00 0.00 0.00 94 1017.5
20240418124004 23 118 0.0 6.4 0.00 0.00 0.00 94 1017.5
20240418123903 23 118 0.0 6.4 0.00 0.00 0.00 94 1017.4
20240418123803 23 117 1.6 6.4 0.00 0.00 0.00 93 1017.5
20240418123702 23 117 3.2 6.4 0.00 0.00 0.00 93 1017.4
20240418123601 23 128 1.6 6.4 0.00 0.00 0.00 93 1017.5
20240418123503 23 168 0.0 6.4 0.00 0.00 0.00 93 1017.6
20240418123401 23 168 1.6 6.4 0.00 0.00 0.00 93 1017.6
20240418123303 23 127 1.6 6.4 0.00 0.00 0.00 93 1017.7
20240418123204 23 127 1.6 6.4 0.00 0.00 0.00 93 1017.5
20240418123102 23 128 0.0 6.4 0.00 0.00 0.00 93 1017.4
20240418123004 23 128 0.0 6.4 0.00 0.00 0.00 93 1017.5
20240418122902 23 128 1.6 6.4 0.00 0.00 0.00 93 1017.5
20240418122802 23 128 3.2 6.4 0.00 0.00 0.00 93 1017.4
20240418122702 23 131 1.6 6.4 0.00 0.00 0.00 93 1017.5
20240418122602 23 124 1.6 3.2 0.00 0.00 0.00 93 1017.5
20240418122505 23 124 1.6 3.2 0.00 0.00 0.00 93 1017.4
20240418122402 23 124 0.0 3.2 0.00 0.00 0.00 93 1017.5
20240418122302 23 125 0.0 3.2 0.00 0.00 0.00 93 1017.5
20240418122201 23 125 0.0 4.8 0.00 0.00 0.00 93 1017.5
20240418122103 23 125 1.6 4.8 0.00 0.00 0.00 93 1017.4
20240418122004 23 125 1.6 4.8 0.00 0.00 0.00 93 1017.5
20240418121902 23 134 0.0 4.8 0.00 0.00 0.00 93 1017.4
20240418121802 23 134 0.0 4.8 0.00 0.00 0.00 93 1017.4
20240418121703 23 134 1.6 4.8 0.00 0.00 0.00 93 1017.4
20240418121602 23 134 0.0 6.4 0.00 0.00 0.00 93 1017.4
20240418121503 23 134 0.0 6.4 0.00 0.00 0.00 93 1017.3
20240418121403 23 134 1.6 6.4 0.00 0.00 0.00 93 1017.4
20240418121302 23 134 1.6 6.4 0.00 0.00 0.00 93 1017.3
20240418121202 23 162 1.6 9.7 0.00 0.00 0.00 93 1017.3
20240418121103 23 313 1.6 9.7 0.00 0.00 0.00 93 1017.3
20240418121005 23 290 1.6 9.7 0.00 0.00 0.00 93 1017.3
20240418120902 23 254 1.6 9.7 0.00 0.00 0.00 93 1017.3
20240418120803 23 161 3.2 9.7 0.00 0.00 0.00 93 1017.3
20240418120701 23 162 3.2 9.7 0.00 0.00 0.00 93 1017.3
20240418120603 23 134 1.6 9.7 0.00 0.00 0.00 93 1017.3
20240418120502 23 142 3.2 9.7 0.00 0.00 0.00 93 1017.3
20240418120402 23 89 3.2 9.7 0.00 0.00 0.00 93 1017.2
20240418120302 23 82 3.2 9.7 0.00 0.00 0.00 93 1017.3
20240418120202 23 133 3.2 6.4 0.00 0.00 0.00 93 1017.2
20240418120104 23 138 3.2 6.4 0.00 0.00 0.00 93 1017.2
20240418120004 23 147 1.6 3.2 0.00 0.00 0.00 93 1017.2
20240418115903 23 104 1.6 3.2 0.00 0.00 0.00 93 1017.2
20240418115804 23 104 1.6 3.2 0.00 0.00 0.00 93 1017.2
20240418115702 23 188 1.6 4.8 0.00 0.00 0.00 93 1017.2
20240418115603 23 210 0.0 4.8 0.00 0.00 0.00 93 1017.2
20240418115503 23 219 0.0 4.8 0.00 0.00 0.00 93 1017.2
20240418115403 23 220 0.0 4.8 0.00 0.00 0.00 93 1017.2
20240418115302 23 220 1.6 4.8 0.00 0.00 0.00 93 1017.3
20240418115204 23 168 1.6 4.8 0.00 0.00 0.00 93 1017.4
20240418115104 23 168 0.0 4.8 0.00 0.00 0.00 93 1017.3
20240418115003 23 179 0.0 4.8 0.00 0.00 0.00 93 1017.4
20240418114902 23 179 1.6 4.8 0.00 0.00 0.00 93 1017.3
20240418114802 23 188 3.2 4.8 0.00 0.00 0.00 93 1017.3
20240418114703 23 244 1.6 4.8 0.00 0.00 0.00 93 1017.3
20240418114603 23 247 1.6 4.8 0.00 0.00 0.00 93 1017.2
20240418114503 -17 0.0 4.8 0.00 0.00 0.00 1017.2
20240418114403 23 114 3.2 4.8 0.00 0.00 0.00 93 1017.2
20240418114303 23 114 3.2 4.8 0.00 0.00 0.00 93 1017.2
20240418114203 23 114 3.2 4.8 0.00 0.00 0.00 93 1017.2
20240418114103 23 114 3.2 4.8 0.00 0.00 0.00 93 1017.2
20240418114002 23 114 3.2 4.8 0.00 0.00 0.00 93 1017.2
20240418113837 23 111 1.6 4.8 0.00 0.00 0.00 93 1017.1
20240418113734 23 103 1.6 4.8 0.00 0.00 0.00 93 1017.1
20240418113634 23 121 1.6 4.8 0.00 0.00 0.00 93 1017.1
20240418113523 23 121 1.6 6.4 0.00 0.00 0.00 93 1017.1
20240418113423 23 213 1.6 6.4 0.00 0.00 0.00 93 1017.2
20240418113322 23 14 1.6 6.4 0.00 0.00 0.00 93 1017.1
20240418113224 23 127 1.6 6.4 0.00 0.00 0.00 93 1017.1
20240418113123 23 127 1.6 6.4 0.00 0.00 0.00 93 1017.2
20240418113024 23 137 0.0 6.4 0.00 0.00 0.00 93 1017.2
20240418112922 23 138 1.6 6.4 0.00 0.00 0.00 93 1017.2
20240418112822 23 138 1.6 6.4 0.00 0.00 0.00 93 1017.2
20240418112722 23 138 1.6 6.4 0.00 0.00 0.00 93 1017.2
20240418112623 23 125 1.6 6.4 0.00 0.00 0.00 93 1017.1
20240418112523 23 113 1.6 6.4 0.00 0.00 0.00 93 1017.2
20240418112422 23 179 1.6 6.4 0.00 0.00 0.00 93 1017.1
20240418112323 23 355 1.6 6.4 0.00 0.00 0.00 93 1017.2
20240418112222 23 128 1.6 6.4 0.00 0.00 0.00 93 1017.1
20240418112122 23 155 1.6 4.8 0.00 0.00 0.00 93 1017.1
20240418112024 23 155 1.6 4.8 0.00 0.00 0.00 93 1017.1
20240418111923 23 152 0.0 4.8 0.00 0.00 0.00 93 1017.1
20240418111823 23 157 0.0 4.8 0.00 0.00 0.00 93 1017.2
20240418111724 23 157 1.6 4.8 0.00 0.00 0.00 93 1017.1
20240418111622 23 157 1.6 4.8 0.00 0.00 0.00 93 1017.1
20240418111522 23 158 0.0 4.8 0.00 0.00 0.00 93 1017.1
20240418111422 23 158 1.6 4.8 0.00 0.00 0.00 93 1017.0
20240418111323 23 158 1.6 4.8 0.00 0.00 0.00 93 1017.1
20240418111223 23 199 0.0 3.2 0.00 0.00 0.00 93 1017.0
20240418111123 23 199 0.0 3.2 0.00 0.00 0.00 93 1017.0
20240418111023 23 199 1.6 3.2 0.00 0.00 0.00 93 1017.0
20240418110923 23 202 1.6 3.2 0.00 0.00 0.00 93 1017.0
20240418110824 23 171 1.6 3.2 0.00 0.00 0.00 93 1017.0
20240418110722 23 178 0.0 3.2 0.00 0.00 0.00 93 1016.9
20240418110624 23 169 0.0 3.2 0.00 0.00 0.00 93 1016.9
20240418110522 23 169 0.0 3.2 0.00 0.00 0.00 93 1016.8
20240418110422 23 169 0.0 3.2 0.00 0.00 0.00 93 1016.8
20240418110324 23 169 0.0 3.2 0.00 0.00 0.00 93 1016.7
20240418110223 23 169 0.0 3.2 0.00 0.00 0.00 93 1016.8
20240418110122 23 169 0.0 3.2 0.00 0.00 0.00 93 1016.7
20240418110021 23 169 0.0 3.2 0.00 0.00 0.00 93 1016.8
20240418105922 23 169 1.6 3.2 0.00 0.00 0.00 93 1016.9
20240418105822 23 169 0.0 3.2 0.00 0.00 0.00 93 1016.8
20240418105721 23 183 0.0 3.2 0.00 0.00 0.00 93 1016.9
20240418105622 23 183 1.6 3.2 0.00 0.00 0.00 93 1016.9
20240418105522 23 183 0.0 3.2 0.00 0.00 0.00 93 1016.8
20240418105423 23 183 0.0 3.2 0.00 0.00 0.00 93 1016.9
20240418105323 23 183 0.0 3.2 0.00 0.00 0.00 93 1016.9
20240418105223 23 183 0.0 3.2 0.00 0.00 0.00 93 1016.9
20240418105122 23 183 0.0 3.2 0.00 0.00 0.00 93 1016.8
20240418105021 23 183 0.0 3.2 0.00 0.00 0.00 93 1016.9
20240418104921 23 183 0.0 4.8 0.00 0.00 0.00 93 1016.9
20240418104822 23 183 1.6 4.8 0.00 0.00 0.00 93 1016.9
20240418104722 23 183 1.6 4.8 0.00 0.00 0.00 93 1016.9
20240418104621 23 234 0.0 4.8 0.00 0.00 0.00 93 1016.8
20240418104523 23 234 1.6 4.8 0.00 0.00 0.00 93 1016.9
20240418104422 23 234 1.6 4.8 0.00 0.00 0.00 93 1016.8
20240418104322 23 104 1.6 4.8 0.00 0.00 0.00 93 1016.7
20240418104222 23 102 1.6 4.8 0.00 0.00 0.00 93 1016.7
20240418104122 23 99 1.6 4.8 0.00 0.00 0.00 93 1016.6
20240418104022 23 99 1.6 4.8 0.00 0.00 0.00 93 1016.6
20240418103922 23 147 0.0 4.8 0.00 0.00 0.00 93 1016.5
20240418103821 23 147 0.0 4.8 0.00 0.00 0.00 93 1016.6
20240418103721 23 147 1.6 4.8 0.00 0.00 0.00 93 1016.6
20240418103622 23 147 3.2 4.8 0.00 0.00 0.00 93 1016.6
20240418103523 23 145 1.6 4.8 0.00 0.00 0.00 93 1016.6
20240418103421 23 312 1.6 3.2 0.00 0.00 0.00 93 1016.6
20240418103321 23 313 1.6 3.2 0.00 0.00 0.00 93 1016.5
20240418103222 23 310 0.0 3.2 0.00 0.00 0.00 93 1016.6
20240418103122 23 305 0.0 3.2 0.00 0.00 0.00 93 1016.8
20240418103021 23 305 1.6 3.2 0.00 0.00 0.00 93 1016.7
20240418102922 23 305 1.6 3.2 0.00 0.00 0.00 93 1016.7
20240418102822 23 300 0.0 3.2 0.00 0.00 0.00 93 1016.7
20240418102722 23 293 0.0 4.8 0.00 0.00 0.00 93 1016.8
20240418102622 23 293 0.0 4.8 0.00 0.00 0.00 93 1016.8
20240418102522 23 293 0.0 4.8 0.00 0.00 0.00 93 1016.8
20240418102421 23 293 1.6 4.8 0.00 0.00 0.00 93 1016.8
20240418102321 23 123 1.6 4.8 0.00 0.00 0.00 93 1016.8
20240418102222 23 123 0.0 4.8 0.00 0.00 0.00 93 1016.9
20240418102123 23 123 0.0 4.8 0.00 0.00 0.00 93 1016.8
20240418102022 23 123 0.0 4.8 0.00 0.00 0.00 93 1016.7
20240418101922 23 123 1.6 4.8 0.00 0.00 0.00 93 1016.7
20240418101823 23 123 1.6 4.8 0.00 0.00 0.00 93 1016.7
20240418101726 23 131 1.6 4.8 0.00 0.00 0.00 93 1016.7
20240418101622 23 0 0.0 3.2 0.00 0.00 0.00 93 1016.7
20240418101523 23 0 1.6 3.2 0.00 0.00 0.00 93 1016.7
20240418101421 23 0 1.6 3.2 0.00 0.00 0.00 93 1016.7
20240418101320 23 0 1.6 3.2 0.00 0.00 0.00 94 1016.7
20240418101222 23 255 0.0 4.8 0.00 0.00 0.00 94 1016.7
20240418101121 23 262 0.0 4.8 0.00 0.00 0.00 94 1016.5
20240418101022 23 258 0.0 4.8 0.00 0.00 0.00 93 1016.5
20240418100922 23 258 1.6 6.4 0.00 0.00 0.00 93 1016.4
20240418100820 23 261 1.6 6.4 0.00 0.00 0.00 93 1016.3
20240418100721 23 114 0.0 6.4 0.00 0.00 0.00 93 1016.3
20240418100620 23 114 0.0 6.4 0.00 0.00 0.00 93 1016.2
20240418100521 23 118 0.0 6.4 0.00 0.00 0.00 93 1016.2
20240418100421 23 118 1.6 6.4 0.00 0.00 0.00 93 1016.2
20240418100320 23 118 1.6 6.4 0.00 0.00 0.00 93 1016.2
20240418100221 23 76 1.6 6.4 0.00 0.00 0.00 93 1016.2
20240418100121 23 76 3.2 6.4 0.00 0.00 0.00 93 1016.2
20240418100023 23 165 3.2 6.4 0.00 0.00 0.00 93 1016.2
20240418095921 23 113 3.2 6.4 0.00 0.00 0.00 93 1016.2
20240418095820 23 113 1.6 6.4 0.00 0.00 0.00 94 1016.3
20240418095720 23 237 1.6 6.4 0.00 0.00 0.00 93 1016.3
20240418095621 23 237 1.6 6.4 0.00 0.00 0.00 93 1016.3
20240418095520 23 354 1.6 4.8 0.00 0.00 0.00 93 1016.4
20240418095420 23 354 1.6 4.8 0.00 0.00 0.00 93 1016.4
20240418095322 23 104 1.6 4.8 0.00 0.00 0.00 93 1016.4
20240418095220 23 47 1.6 4.8 0.00 0.00 0.00 93 1016.4
20240418095120 23 66 3.2 4.8 0.00 0.00 0.00 93 1016.4
20240418095020 23 65 3.2 4.8 0.00 0.00 0.00 93 1016.4
20240418094920 23 133 1.6 4.8 0.00 0.00 0.00 93 1016.4
20240418094821 23 97 1.6 4.8 0.00 0.00 0.00 93 1016.4
20240418094721 23 96 1.6 6.4 0.00 0.00 0.00 93 1016.3
20240418094621 23 96 1.6 6.4 0.00 0.00 0.00 93 1016.4
20240418094520 23 116 0.0 6.4 0.00 0.00 0.00 93 1016.4
20240418094419 23 0 0.0 6.4 0.00 0.00 0.00 93 1016.5
20240418094321 23 0 1.6 6.4 0.00 0.00 0.00 93 1016.4
20240418094220 23 0 1.6 6.4 0.00 0.00 0.00 93 1016.5
20240418094120 23 107 1.6 6.4 0.00 0.00 0.00 93 1016.5
20240418094020 23 110 1.6 8.0 0.00 0.00 0.00 93 1016.4
20240418093919 23 186 3.2 8.0 0.00 0.00 0.00 93 1016.4
20240418093820 23 188 3.2 9.7 0.00 0.00 0.00 94 1016.3
20240418093721 23 347 0.0 9.7 0.00 0.00 0.00 93 1016.3
20240418093622 23 219 0.0 9.7 0.00 0.00 0.00 93 1016.3
20240418093520 23 258 1.6 9.7 0.00 0.00 0.00 93 1016.3
20240418093420 23 190 1.6 9.7 0.00 0.00 0.00 93 1016.3
20240418093320 23 192 1.6 9.7 0.00 0.00 0.00 93 1016.2
20240418093221 23 192 1.6 9.7 0.00 0.00 0.00 93 1016.1
20240418093120 23 128 1.6 9.7 0.00 0.00 0.00 93 1016.1
20240418093020 23 48 3.2 9.7 0.00 0.00 0.00 93 1016.1
20240418092922 23 79 3.2 9.7 0.00 0.00 0.00 93 1016.2
20240418092820 23 137 3.2 8.0 0.00 0.00 0.00 93 1016.0
20240418092720 23 89 3.2 8.0 0.00 0.00 0.00 93 1016.0
20240418092620 23 123 1.6 8.0 0.00 0.00 0.00 93 1016.0
20240418092521 23 124 1.6 8.0 0.00 0.00 0.00 93 1016.0
20240418092421 23 124 3.2 9.7 0.00 0.00 0.00 93 1016.0
20240418092318 23 124 3.2 9.7 0.00 0.00 0.00 93 1016.0
20240418092219 23 0 1.6 9.7 0.00 0.00 0.00 93 1016.0
20240418092119 23 0 1.6 9.7 0.00 0.00 0.00 93 1016.1
20240418092019 23 307 3.2 9.7 0.00 0.00 0.00 93 1016.1
20240418091920 23 255 3.2 9.7 0.00 0.00 0.00 93 1016.1
20240418091821 23 142 3.2 9.7 0.00 0.00 0.00 93 1016.1
20240418091720 23 123 3.2 9.7 0.00 0.00 0.00 93 1016.1
20240418091619 23 123 4.8 11.3 0.00 0.00 0.00 93 1016.1
20240418091520 23 144 4.8 11.3 0.00 0.00 0.00 93 1016.1
20240418091420 23 354 1.6 11.3 0.00 0.00 0.00 93 1016.2
20240418091319 23 54 3.2 11.3 0.00 0.00 0.00 93 1016.3
20240418091219 23 54 3.2 11.3 0.00 0.00 0.00 93 1016.2
20240418091120 23 147 3.2 11.3 0.00 0.00 0.00 93 1016.3
20240418091019 23 131 1.6 11.3 0.00 0.00 0.00 93 1016.3
20240418090920 23 135 3.2 11.3 0.00 0.00 0.00 93 1016.3
20240418090821 23 312 4.8 11.3 0.00 0.00 0.00 93 1016.3
20240418090720 23 147 4.8 11.3 0.00 0.00 0.00 93 1016.3
20240418090619 23 355 4.8 9.7 0.00 0.00 0.00 93 1016.2
20240418090519 23 123 4.8 9.7 0.00 0.00 0.00 93 1016.3
20240418090422 23 138 3.2 9.7 0.00 0.00 0.00 93 1016.3
20240418090319 23 343 3.2 8.0 0.00 0.00 0.00 93 1016.2
20240418090219 23 258 3.2 8.0 0.00 0.00 0.00 93 1016.3
20240418090120 23 13 3.2 8.0 0.00 0.00 0.00 93 1016.3
20240418090020 23 35 1.6 8.0 0.00 0.00 0.00 93 1016.4
20240418085919 23 110 3.2 8.0 0.00 0.00 0.00 93 1016.4
20240418085819 23 130 3.2 8.0 0.00 0.00 0.00 93 1016.4
20240418085721 23 138 3.2 11.3 0.00 0.00 0.00 93 1016.4
20240418085619 23 157 3.2 11.3 0.00 0.00 0.00 93 1016.4
20240418085518 23 111 3.2 11.3 0.00 0.00 0.00 93 1016.4
20240418085421 23 124 3.2 11.3 0.00 0.00 0.00 94 1016.4
20240418085319 23 203 1.6 11.3 0.00 0.00 0.00 94 1016.3
20240418085220 23 207 3.2 16.1 0.00 0.00 0.00 94 1016.4
20240418085120 23 261 3.2 16.1 0.00 0.00 0.00 94 1016.3
20240418085019 23 319 1.6 16.1 0.00 0.00 0.00 94 1016.4
20240418084918 23 269 3.2 16.1 0.00 0.00 0.00 94 1016.3
20240418084819 23 200 4.8 16.1 0.00 0.00 0.00 94 1016.3
20240418084719 23 55 3.2 16.1 0.00 0.00 0.00 94 1016.3
20240418084618 23 107 1.6 16.1 0.00 0.00 0.00 94 1016.3
20240418084519 23 107 3.2 16.1 0.00 0.00 0.00 94 1016.2
20240418084420 23 49 4.8 16.1 0.00 0.00 0.00 94 1016.2
20240418084319 23 123 4.8 16.1 0.00 0.00 0.00 94 1016.2
20240418084219 23 30 3.2 8.0 0.00 0.00 0.00 94 1016.1
20240418084118 23 63 3.2 8.0 0.00 0.00 0.00 94 1016.1
20240418084018 23 281 3.2 8.0 0.00 0.00 0.00 94 1016.1
20240418083918 23 206 3.2 8.0 0.00 0.00 0.00 94 1016.1
20240418083819 23 121 1.6 8.0 0.00 0.00 0.00 94 1016.0
20240418083718 23 121 1.6 8.0 0.00 0.00 0.00 94 1016.1
20240418083621 23 121 3.2 8.0 0.00 0.00 0.00 94 1016.0
20240418083519 23 121 3.2 8.0 0.00 0.00 0.00 94 1016.0
20240418083418 23 42 3.2 8.0 0.00 0.00 0.00 94 1016.0
20240418083319 23 59 1.6 8.0 0.00 0.00 0.00 94 1016.1
20240418083218 23 61 1.6 8.0 0.00 0.00 0.00 94 1016.0
20240418083118 23 347 3.2 8.0 0.00 0.00 0.00 94 1016.1
20240418083019 23 134 3.2 8.0 0.00 0.00 0.00 94 1016.1
20240418082918 23 103 3.2 9.7 0.00 0.00 0.00 94 1015.9
20240418082818 23 186 3.2 9.7 0.00 0.00 0.00 94 1016.1
20240418082718 23 176 3.2 9.7 0.00 0.00 0.00 94 1016.1
20240418082619 23 117 3.2 9.7 0.00 0.00 0.00 94 1016.1
20240418082519 23 147 3.2 9.7 0.00 0.00 0.00 94 1016.1
20240418082420 23 117 3.2 9.7 0.00 0.00 0.00 94 1016.1
20240418082319 23 104 1.6 9.7 0.00 0.00 0.00 94 1016.2
20240418082218 23 114 1.6 9.7 0.00 0.00 0.00 94 1016.1
20240418082118 23 110 1.6 9.7 0.00 0.00 0.00 94 1016.2
20240418082018 23 117 3.2 9.7 0.00 0.00 0.00 94 1016.1
20240418081919 23 133 1.6 4.8 0.00 0.00 0.00 94 1016.1
20240418081818 23 49 0.0 4.8 0.00 0.00 0.00 94 1016.0
20240418081718 23 127 0.0 4.8 0.00 0.00 0.00 94 1016.2
20240418081620 23 127 1.6 4.8 0.00 0.00 0.00 94 1016.2
20240418081520 23 125 1.6 4.8 0.00 0.00 0.00 94 1016.1
20240418081419 23 137 1.6 4.8 0.00 0.00 0.00 94 1016.1
20240418081318 23 137 0.0 3.2 0.00 0.00 0.00 94 1016.1
20240418081219 23 137 0.0 3.2 0.00 0.00 0.00 94 1016.2
20240418081120 23 137 0.0 3.2 0.00 0.00 0.00 94 1016.2
20240418081018 23 137 0.0 3.2 0.00 0.00 0.00 94 1016.2
20240418080919 23 102 1.6 3.2 0.00 0.00 0.00 94 1016.3
20240418080818 23 102 0.0 3.2 0.00 0.00 0.00 94 1016.2
20240418080719 23 23 0.0 3.2 0.00 0.00 0.00 94 1016.3
20240418080619 23 23 0.0 3.2 0.00 0.00 0.00 94 1016.3
20240418080519 23 23 1.6 3.2 0.00 0.00 0.00 94 1016.3
20240418080418 23 0 0.0 3.2 0.00 0.00 0.00 94 1016.4
20240418080319 23 0 0.0 4.8 0.00 0.00 0.00 94 1016.3
20240418080219 23 0 0.0 8.0 0.00 0.00 0.00 94 1016.3
20240418080118 23 0 1.6 8.0 0.00 0.00 0.00 94 1016.2
20240418080018 23 0 0.0 8.0 0.00 0.00 0.00 94 1016.2
20240418075919 23 0 0.0 8.0 0.00 0.00 0.00 94 1016.3
20240418075817 23 0 1.6 8.0 0.00 0.00 0.00 94 1016.2
20240418075717 23 0 1.6 8.0 0.00 0.00 0.00 94 1016.2
20240418075618 23 0 0.0 8.0 0.00 0.00 0.00 94 1016.2
20240418075518 23 197 1.6 8.0 0.00 0.00 0.00 94 1016.2
20240418075418 23 197 1.6 8.0 0.00 0.00 0.00 94 1016.2
20240418075317 23 199 1.6 8.0 0.00 0.00 0.00 94 1016.1
20240418075217 23 144 1.6 6.4 0.00 0.00 0.00 94 1016.1
20240418075118 23 209 1.6 6.4 0.00 0.00 0.00 94 1016.2
20240418075017 23 144 0.0 9.7 0.00 0.00 0.00 94 1016.2
20240418074917 23 144 0.0 9.7 0.00 0.00 0.00 94 1016.2
20240418074818 23 144 1.6 9.7 0.00 0.00 0.00 94 1016.2
20240418074717 23 144 1.6 9.7 0.00 0.00 0.00 94 1016.2
20240418074618 23 144 1.6 9.7 0.00 0.00 0.00 94 1016.2
20240418074517 23 109 1.6 9.7 0.00 0.00 0.00 94 1016.2
20240418074420 23 110 1.6 9.7 0.00 0.00 0.00 94 1016.2
20240418074317 23 127 1.6 9.7 0.00 0.00 0.00 94 1016.1
20240418074218 23 127 3.2 9.7 0.00 0.00 0.00 94 1016.1
20240418074118 23 137 3.2 9.7 0.00 0.00 0.00 94 1016.1
20240418074017 23 127 1.6 8.0 0.00 0.00 0.00 94 1016.2
20240418073917 23 106 0.0 8.0 0.00 0.00 0.00 94 1016.1
20240418073817 23 106 1.6 8.0 0.00 0.00 0.00 94 1016.1
20240418073717 23 118 1.6 8.0 0.00 0.00 0.00 94 1016.2
20240418073617 23 116 1.6 8.0 0.00 0.00 0.00 94 1016.2
20240418073517 23 116 1.6 8.0 0.00 0.00 0.00 94 1016.2
20240418073418 23 97 0.0 4.8 0.00 0.00 0.00 94 1016.2
20240418073317 23 97 0.0 4.8 0.00 0.00 0.00 94 1016.1
20240418073217 23 97 0.0 4.8 0.00 0.00 0.00 94 1016.2
20240418073118 23 97 1.6 4.8 0.00 0.00 0.00 94 1016.2
20240418073018 23 96 1.6 4.8 0.00 0.00 0.00 94 1016.2
20240418072917 23 123 1.6 4.8 0.00 0.00 0.00 94 1016.2
20240418072817 23 121 1.6 4.8 0.00 0.00 0.00 94 1016.3
20240418072719 23 121 1.6 4.8 0.00 0.00 0.00 94 1016.3
20240418072617 23 145 1.6 4.8 0.00 0.00 0.00 94 1016.3
20240418072517 23 140 0.0 4.8 0.00 0.00 0.00 94 1016.4
20240418072418 23 140 1.6 4.8 0.00 0.00 0.00 94 1016.3
20240418072318 23 140 1.6 4.8 0.00 0.00 0.00 94 1016.4
20240418072217 23 133 0.0 4.8 0.00 0.00 0.00 94 1016.4
20240418072116 23 149 1.6 4.8 0.00 0.00 0.00 94 1016.5
20240418072018 23 149 1.6 4.8 0.00 0.00 0.00 94 1016.4
20240418071917 23 155 0.0 3.2 0.00 0.00 0.00 94 1016.3
20240418071817 23 120 0.0 3.2 0.00 0.00 0.00 94 1016.3
20240418071719 23 123 0.0 6.4 0.00 0.00 0.00 94 1016.4
20240418071616 23 123 1.6 6.4 0.00 0.00 0.00 94 1016.4
20240418071517 23 123 1.6 6.4 0.00 0.00 0.00 94 1016.4
20240418071418 23 121 1.6 6.4 0.00 0.00 0.00 94 1016.4
20240418071318 23 121 0.0 6.4 0.00 0.00 0.00 94 1016.5
20240418071217 23 121 0.0 6.4 0.00 0.00 0.00 94 1016.4
20240418071117 23 121 1.6 6.4 0.00 0.00 0.00 94 1016.4
20240418071018 23 121 1.6 6.4 0.00 0.00 0.00 94 1016.5
20240418070916 23 140 1.6 6.4 0.00 0.00 0.00 94 1016.5
20240418070816 23 140 1.6 6.4 0.00 0.00 0.00 94 1016.5
20240418070717 23 79 0.0 4.8 0.00 0.00 0.00 94 1016.5
20240418070618 23 79 0.0 4.8 0.00 0.00 0.00 94 1016.6
20240418070516 23 79 1.6 4.8 0.00 0.00 0.00 94 1016.6
20240418070416 23 147 0.0 4.8 0.00 0.00 0.00 94 1016.7
20240418070318 23 147 0.0 4.8 0.00 0.00 0.00 94 1016.7
20240418070218 23 147 0.0 4.8 0.00 0.00 0.00 94 1016.7
20240418070118 23 147 1.6 4.8 0.00 0.00 0.00 94 1016.7
20240418070016 23 147 1.6 4.8 0.00 0.00 0.00 94 1016.7
20240418065917 23 131 1.6 3.2 0.00 0.00 0.00 94 1016.8
20240418065816 23 131 1.6 3.2 0.00 0.00 0.00 94 1016.9
20240418065716 23 130 0.0 3.2 0.00 0.00 0.00 94 1016.9
20240418065618 23 130 0.0 3.2 0.00 0.00 0.00 94 1016.9
20240418065517 23 142 0.0 3.2 0.00 0.00 0.00 93 1016.9
20240418065416 23 142 1.6 3.2 0.00 0.00 0.00 94 1016.9
20240418065316 23 142 1.6 3.2 0.00 0.00 0.00 94 1016.9
20240418065216 23 164 0.0 3.2 0.00 0.00 0.00 94 1016.9
20240418065118 23 164 0.0 3.2 0.00 0.00 0.00 94 1016.9
20240418065016 23 157 0.0 3.2 0.00 0.00 0.00 94 1016.9
20240418064917 23 159 0.0 3.2 0.00 0.00 0.00 94 1016.9
20240418064816 23 159 0.0 3.2 0.00 0.00 0.00 94 1016.8
20240418064716 23 159 0.0 3.2 0.00 0.00 0.00 94 1016.8
20240418064617 23 87 0.0 3.2 0.00 0.00 0.00 93 1016.8
20240418064517 23 87 1.6 3.2 0.00 0.00 0.00 93 1016.8
20240418064416 23 87 0.0 3.2 0.00 0.00 0.00 93 1016.8
20240418064316 23 83 0.0 3.2 0.00 0.00 0.00 93 1016.9
20240418064216 23 83 0.0 3.2 0.00 0.00 0.00 93 1016.9
20240418064116 23 83 1.6 3.2 0.00 0.00 0.00 93 1017.0
20240418064016 23 83 1.6 3.2 0.00 0.00 0.00 93 1016.9
20240418063918 23 83 0.0 3.2 0.00 0.00 0.00 93 1016.9
20240418063816 23 83 0.0 3.2 0.00 0.00 0.00 93 1016.9
20240418063716 23 83 1.6 3.2 0.00 0.00 0.00 93 1017.0
20240418063615 23 83 1.6 3.2 0.00 0.00 0.00 93 1016.9
20240418063517 23 83 1.6 3.2 0.00 0.00 0.00 93 1017.0
20240418063416 23 78 0.0 3.2 0.00 0.00 0.00 93 1017.0
20240418063315 23 78 0.0 4.8 0.00 0.00 0.00 93 1017.0
20240418063217 23 78 0.0 9.7 0.00 0.00 0.00 93 1017.1
20240418063116 23 76 1.6 9.7 0.00 0.00 0.00 93 1017.0
20240418063015 23 78 1.6 9.7 0.00 0.00 0.00 93 1017.0
20240418062916 23 78 1.6 9.7 0.00 0.00 0.00 93 1017.1
20240418062816 23 78 0.0 9.7 0.00 0.00 0.00 93 1017.0
20240418062716 23 78 0.0 9.7 0.00 0.00 0.00 93 1017.1
20240418062614 23 78 1.6 9.7 0.00 0.00 0.00 93 1017.0
20240418062515 23 78 1.6 9.7 0.00 0.00 0.00 93 1017.0
20240418062416 23 78 3.2 9.7 0.00 0.00 0.00 93 1017.1
20240418062315 23 75 3.2 9.7 0.00 0.00 0.00 93 1017.1
20240418062215 23 111 1.6 6.4 0.00 0.00 0.00 93 1017.2
20240418062116 23 79 1.6 4.8 0.00 0.00 0.00 93 1017.1
20240418062016 23 79 1.6 4.8 0.00 0.00 0.00 93 1017.1
20240418061914 23 79 0.0 4.8 0.00 0.00 0.00 93 1017.1
20240418061817 23 80 0.0 4.8 0.00 0.00 0.00 93 1017.1
20240418061715 23 80 1.6 4.8 0.00 0.00 0.00 93 1017.1
20240418061616 23 80 1.6 4.8 0.00 0.00 0.00 93 1017.1
20240418061515 23 75 1.6 4.8 0.00 0.00 0.00 93 1017.1
20240418061416 23 75 1.6 4.8 0.00 0.00 0.00 93 1017.0
20240418061315 23 75 1.6 4.8 0.00 0.00 0.00 93 1017.1
20240418061216 23 73 1.6 4.8 0.00 0.00 0.00 93 1017.0
20240418061118 23 75 1.6 4.8 0.00 0.00 0.00 93 1017.1
20240418061015 23 71 1.6 4.8 0.00 0.00 0.00 93 1017.2
20240418060915 23 71 1.6 4.8 0.00 0.00 0.00 93 1017.3
20240418060815 23 71 1.6 3.2 0.00 0.00 0.00 93 1017.3
20240418060716 23 71 1.6 3.2 0.00 0.00 0.00 93 1017.4
20240418060615 23 71 0.0 3.2 0.00 0.00 0.00 93 1017.4
20240418060515 23 71 0.0 3.2 0.00 0.00 0.00 93 1017.3
20240418060416 23 71 0.0 6.4 0.00 0.00 0.00 93 1017.4
20240418060316 23 71 1.6 6.4 0.00 0.00 0.00 93 1017.3
20240418060215 23 71 1.6 6.4 0.00 0.00 0.00 93 1017.3
20240418060115 23 71 0.0 6.4 0.00 0.00 0.00 93 1017.3
20240418060017 23 71 0.0 6.4 0.00 0.00 0.00 93 1017.3
20240418055915 23 71 0.0 6.4 0.00 0.00 0.00 93 1017.5
20240418055815 23 71 0.0 6.4 0.00 0.00 0.00 93 1017.6
20240418055715 23 71 1.6 6.4 0.00 0.00 0.00 93 1017.6
20240418055615 23 71 1.6 6.4 0.00 0.00 0.00 93 1017.6
20240418055514 23 66 3.2 6.4 0.00 0.00 0.00 93 1017.6
20240418055417 23 102 1.6 3.2 0.00 0.00 0.00 93 1017.6
20240418055316 23 80 1.6 3.2 0.00 0.00 0.00 93 1017.6
20240418055216 23 82 1.6 3.2 0.00 0.00 0.00 93 1017.5
20240418055117 23 82 0.0 3.2 0.00 0.00 0.00 93 1017.6
20240418055016 23 82 1.6 3.2 0.00 0.00 0.00 93 1017.6
20240418054915 23 82 1.6 3.2 0.00 0.00 0.00 93 1017.6
20240418054816 23 82 0.0 3.2 0.00 0.00 0.00 93 1017.6
20240418054715 23 71 0.0 3.2 0.00 0.00 0.00 93 1017.6
20240418054616 23 71 0.0 3.2 0.00 0.00 0.00 93 1017.7
20240418054515 23 71 1.6 3.2 0.00 0.00 0.00 93 1017.6
20240418054414 23 71 1.6 3.2 0.00 0.00 0.00 93 1017.7
20240418054315 23 71 0.0 1.6 0.00 0.00 0.00 93 1017.7
20240418054215 23 71 0.0 1.6 0.00 0.00 0.00 93 1017.7
20240418054114 23 71 0.0 1.6 0.00 0.00 0.00 93 1017.7
20240418054014 23 71 1.6 1.6 0.00 0.00 0.00 93 1017.7
20240418053914 23 66 0.0 1.6 0.00 0.00 0.00 93 1017.7
20240418053815 23 66 0.0 3.2 0.00 0.00 0.00 93 1017.8
20240418053714 23 66 0.0 4.8 0.00 0.00 0.00 93 1017.7
20240418053615 23 66 0.0 4.8 0.00 0.00 0.00 93 1017.7
20240418053515 23 66 0.0 4.8 0.00 0.00 0.00 93 1017.7
20240418053415 23 66 0.0 4.8 0.00 0.00 0.00 93 1017.7
20240418053314 23 66 0.0 4.8 0.00 0.00 0.00 93 1017.8
20240418053216 23 66 0.0 4.8 0.00 0.00 0.00 93 1017.8
20240418053115 23 66 0.0 4.8 0.00 0.00 0.00 93 1017.8
20240418053015 23 66 0.0 4.8 0.00 0.00 0.00 93 1017.8
20240418052915 23 66 1.6 4.8 0.00 0.00 0.00 93 1017.8
20240418052814 23 62 1.6 4.8 0.00 0.00 0.00 93 1017.8
20240418052714 23 124 1.6 4.8 0.00 0.00 0.00 93 1017.9
20240418052615 23 125 1.6 6.4 0.00 0.00 0.00 93 1018.0
20240418052515 23 127 1.6 6.4 0.00 0.00 0.00 93 1017.9
20240418052414 23 162 1.6 6.4 0.00 0.00 0.00 93 1017.9
20240418052314 23 166 0.0 6.4 0.00 0.00 0.00 93 1017.9
20240418052216 23 107 0.0 6.4 0.00 0.00 0.00 93 1017.9
20240418052114 23 107 0.0 6.4 0.00 0.00 0.00 93 1018.0
20240418052014 23 107 0.0 6.4 0.00 0.00 0.00 93 1018.0
20240418051915 23 107 0.0 6.4 0.00 0.00 0.00 93 1018.0
20240418051815 23 109 1.6 6.4 0.00 0.00 0.00 93 1018.1
20240418051714 23 109 1.6 6.4 0.00 0.00 0.00 93 1018.1
20240418051614 23 159 0.0 4.8 0.00 0.00 0.00 93 1018.1
20240418051516 23 178 0.0 3.2 0.00 0.00 0.00 93 1018.1
20240418051414 23 178 0.0 3.2 0.00 0.00 0.00 93 1018.1
20240418051314 23 178 0.0 4.8 0.00 0.00 0.00 93 1018.1
20240418051215 23 178 1.6 6.4 0.00 0.00 0.00 93 1018.2
20240418051115 23 179 0.0 6.4 0.00 0.00 0.00 93 1018.1
20240418051015 23 110 0.0 6.4 0.00 0.00 0.00 93 1018.0
20240418050914 23 110 0.0 6.4 0.00 0.00 0.00 93 1018.0
20240418050815 23 110 0.0 6.4 0.00 0.00 0.00 93 1018.0
20240418050713 23 110 0.0 6.4 0.00 0.00 0.00 93 1017.9
20240418050611 23 111 0.0 6.4 0.00 0.00 0.00 93 1018.0
20240418050511 23 111 1.6 6.4 0.00 0.00 0.00 93 1017.9
20240418050408 23 111 3.2 6.4 0.00 0.00 0.00 93 1017.9
20240418050308 23 147 3.2 6.4 0.00 0.00 0.00 93 1018.0
20240418050205 23 190 1.6 4.8 0.00 0.00 0.00 93 1018.0
20240418050104 23 142 1.6 4.8 0.00 0.00 0.00 93 1018.0
20240418050003 23 142 0.0 4.8 0.00 0.00 0.00 93 1018.1
20240418045903 23 134 1.6 8.0 0.00 0.00 0.00 93 1018.1
20240418045803 23 134 1.6 8.0 0.00 0.00 0.00 93 1018.0
20240418045702 23 99 1.6 8.0 0.00 0.00 0.00 93 1018.0
20240418045602 23 99 1.6 8.0 0.00 0.00 0.00 92 1018.1
20240418045503 23 125 1.6 8.0 0.00 0.00 0.00 92 1018.2
20240418045403 23 123 0.0 8.0 0.00 0.00 0.00 92 1018.2
20240418045302 23 123 1.6 8.0 0.00 0.00 0.00 92 1018.2
20240418045202 23 123 1.6 8.0 0.00 0.00 0.00 92 1018.3
20240418045102 23 123 3.2 8.0 0.00 0.00 0.00 92 1018.2
20240418045005 23 127 1.6 8.0 0.00 0.00 0.00 92 1018.2
20240418044902 23 134 1.6 4.8 0.00 0.00 0.00 92 1018.3
20240418044802 23 134 1.6 4.8 0.00 0.00 0.00 92 1018.2
20240418044703 23 103 0.0 3.2 0.00 0.00 0.00 92 1018.2
20240418044603 23 103 0.0 3.2 0.00 0.00 0.00 92 1018.2
20240418044502 23 103 0.0 4.8 0.00 0.00 0.00 92 1018.3
20240418044402 23 103 0.0 4.8 0.00 0.00 0.00 92 1018.3
20240418044303 23 106 0.0 4.8 0.00 0.00 0.00 92 1018.4
20240418044203 23 106 0.0 4.8 0.00 0.00 0.00 92 1018.4
20240418044104 23 106 0.0 4.8 0.00 0.00 0.00 92 1018.3
20240418044004 23 97 0.0 4.8 0.00 0.00 0.00 92 1018.3
20240418043904 23 97 1.6 4.8 0.00 0.00 0.00 92 1018.3
20240418043802 23 65 0.0 4.8 0.00 0.00 0.00 92 1018.3
20240418043704 23 133 1.6 4.8 0.00 0.00 0.00 92 1018.3
20240418043604 23 133 1.6 4.8 0.00 0.00 0.00 92 1018.3
20240418043502 23 131 0.0 1.6 0.00 0.00 0.00 92 1018.3
20240418043402 23 131 0.0 3.2 0.00 0.00 0.00 92 1018.4
20240418043303 23 131 0.0 3.2 0.00 0.00 0.00 92 1018.3
20240418043203 -17 0.0 3.2 0.00 0.00 0.00 1018.3
20240418043103 -17 0.0 3.2 0.00 0.00 0.00 1018.2
20240418043003 -17 0.0 3.2 0.00 0.00 0.00 1018.2
20240418042904 23 130 0.0 3.2 0.00 0.00 0.00 92 1018.2
20240418042803 23 130 0.0 3.2 0.00 0.00 0.00 92 1018.2
20240418042703 23 130 0.0 3.2 0.00 0.00 0.00 92 1018.2
20240418042604 23 130 0.0 3.2 0.00 0.00 0.00 92 1018.2
20240418042503 23 130 0.0 3.2 0.00 0.00 0.00 92 1018.1
20240418042402 23 130 0.0 3.2 0.00 0.00 0.00 92 1018.2
20240418042303 23 131 0.0 3.2 0.00 0.00 0.00 91 1018.2
20240418042203 23 131 0.0 3.2 0.00 0.00 0.00 91 1018.2
20240418042102 23 131 1.6 3.2 0.00 0.00 0.00 91 1018.2
20240418042002 23 131 0.0 3.2 0.00 0.00 0.00 91 1018.2
20240418041903 23 58 0.0 3.2 0.00 0.00 0.00 91 1018.3
20240418041802 23 58 0.0 3.2 0.00 0.00 0.00 91 1018.3
20240418041701 23 58 0.0 3.2 0.00 0.00 0.00 91 1018.3
20240418041603 23 58 0.0 4.8 0.00 0.00 0.00 91 1018.3
20240418041503 23 58 0.0 4.8 0.00 0.00 0.00 91 1018.3
20240418041404 23 54 1.6 4.8 0.00 0.00 0.00 91 1018.4
20240418041302 23 111 1.6 4.8 0.00 0.00 0.00 91 1018.4
20240418041204 23 111 1.6 4.8 0.00 0.00 0.00 91 1018.4
20240418041103 23 111 1.6 4.8 0.00 0.00 0.00 91 1018.3
20240418041004 23 124 1.6 4.8 0.00 0.00 0.00 91 1018.3
20240418040903 23 124 0.0 4.8 0.00 0.00 0.00 91 1018.3
20240418040801 23 123 1.6 4.8 0.00 0.00 0.00 91 1018.3
20240418040702 23 123 1.6 4.8 0.00 0.00 0.00 91 1018.3
20240418040603 23 123 0.0 3.2 0.00 0.00 0.00 91 1018.3
20240418040503 23 123 0.0 1.6 0.00 0.00 0.00 91 1018.2
20240418040403 23 123 0.0 1.6 0.00 0.00 0.00 91 1018.2
20240418040302 23 123 0.0 1.6 0.00 0.00 0.00 91 1018.2
20240418040202 23 123 0.0 1.6 0.00 0.00 0.00 91 1018.3
20240418040103 23 123 0.0 4.8 0.00 0.00 0.00 91 1018.4
20240418040003 23 123 0.0 4.8 0.00 0.00 0.00 91 1018.4
20240418035904 23 123 0.0 4.8 0.00 0.00 0.00 91 1018.4
20240418035804 23 123 0.0 4.8 0.00 0.00 0.00 91 1018.5
20240418035702 23 123 0.0 4.8 0.00 0.00 0.00 91 1018.5
20240418035605 23 123 0.0 4.8 0.00 0.00 0.00 91 1018.4
20240418035504 23 123 0.0 4.8 0.00 0.00 0.00 91 1018.5
20240418035404 23 123 0.0 4.8 0.00 0.00 0.00 91 1018.4
20240418035303 23 123 1.6 4.8 0.00 0.00 0.00 91 1018.3
20240418035202 23 123 1.6 4.8 0.00 0.00 0.00 91 1018.4
20240418035102 23 182 0.0 3.2 0.00 0.00 0.00 91 1018.5
20240418035004 23 182 1.6 3.2 0.00 0.00 0.00 91 1018.5
20240418034903 23 180 1.6 3.2 0.00 0.00 0.00 91 1018.6
20240418034802 23 149 1.6 3.2 0.00 0.00 0.00 91 1018.5
20240418034702 23 149 1.6 3.2 0.00 0.00 0.00 91 1018.6
20240418034603 23 154 0.0 3.2 0.00 0.00 0.00 91 1018.6
20240418034504 23 157 0.0 1.6 0.00 0.00 0.00 91 1018.6
20240418034404 23 157 0.0 1.6 0.00 0.00 0.00 91 1018.7
20240418034303 23 157 0.0 1.6 0.00 0.00 0.00 91 1018.6
20240418034201 23 157 0.0 4.8 0.00 0.00 0.00 91 1018.6
20240418034104 23 157 0.0 4.8 0.00 0.00 0.00 91 1018.5
20240418034003 23 157 0.0 4.8 0.00 0.00 0.00 91 1018.5
20240418033904 23 157 0.0 4.8 0.00 0.00 0.00 91 1018.5
20240418033802 23 157 0.0 4.8 0.00 0.00 0.00 91 1018.4
20240418033702 23 157 0.0 4.8 0.00 0.00 0.00 91 1018.4
20240418033602 23 157 0.0 4.8 0.00 0.00 0.00 91 1018.5
20240418033504 23 157 0.0 4.8 0.00 0.00 0.00 91 1018.5
20240418033403 23 157 1.6 4.8 0.00 0.00 0.00 91 1018.3
20240418033304 23 157 1.6 4.8 0.00 0.00 0.00 91 1018.3
20240418033203 23 116 0.0 3.2 0.00 0.00 0.00 91 1018.2
20240418033104 23 117 1.6 3.2 0.00 0.00 0.00 91 1018.3
20240418033004 23 117 1.6 3.2 0.00 0.00 0.00 91 1018.4
20240418032903 23 117 0.0 3.2 0.00 0.00 0.00 91 1018.4
20240418032803 23 118 0.0 3.2 0.00 0.00 0.00 91 1018.3
20240418032702 23 118 0.0 3.2 0.00 0.00 0.00 91 1018.3
20240418032602 23 118 0.0 3.2 0.00 0.00 0.00 91 1018.3
20240418032503 23 118 0.0 3.2 0.00 0.00 0.00 91 1018.3
20240418032402 23 118 0.0 3.2 0.00 0.00 0.00 91 1018.3
20240418032303 23 118 0.0 3.2 0.00 0.00 0.00 91 1018.3
20240418032202 23 118 0.0 3.2 0.00 0.00 0.00 91 1018.3
20240418032103 23 118 0.0 3.2 0.00 0.00 0.00 91 1018.2
20240418032002 23 118 0.0 3.2 0.00 0.00 0.00 91 1018.3
20240418031902 23 118 0.0 3.2 0.00 0.00 0.00 91 1018.3
20240418031804 23 118 1.6 3.2 0.00 0.00 0.00 91 1018.2
20240418031703 23 118 1.6 3.2 0.00 0.00 0.00 91 1018.2
20240418031601 23 121 1.6 3.2 0.00 0.00 0.00 91 1018.2
20240418031503 23 123 1.6 3.2 0.00 0.00 0.00 91 1018.3
20240418031404 23 123 1.6 3.2 0.00 0.00 0.00 91 1018.3
20240418031304 23 123 1.6 4.8 0.00 0.00 0.00 91 1018.2
20240418031203 23 134 0.0 4.8 0.00 0.00 0.00 91 1018.2
20240418031104 23 134 0.0 4.8 0.00 0.00 0.00 91 1018.2
20240418031003 23 134 0.0 4.8 0.00 0.00 0.00 91 1018.2
20240418030902 23 134 0.0 4.8 0.00 0.00 0.00 91 1018.1
20240418030803 23 134 0.0 4.8 0.00 0.00 0.00 91 1018.2
20240418030704 23 134 1.6 4.8 0.00 0.00 0.00 91 1018.1
20240418030604 23 134 1.6 4.8 0.00 0.00 0.00 91 1018.1
20240418030501 23 131 3.2 4.8 0.00 0.00 0.00 91 1018.1
20240418030403 23 128 1.6 4.8 0.00 0.00 0.00 91 1018.1
20240418030304 23 147 0.0 3.2 0.00 0.00 0.00 91 1018.1
20240418030203 23 147 0.0 3.2 0.00 0.00 0.00 91 1018.1
20240418030103 23 151 0.0 3.2 0.00 0.00 0.00 91 1018.1
20240418030004 23 151 0.0 3.2 0.00 0.00 0.00 91 1018.1
20240418025902 23 151 0.0 3.2 0.00 0.00 0.00 91 1018.1
20240418025803 23 154 0.0 3.2 0.00 0.00 0.00 90 1018.1
20240418025701 23 154 1.6 3.2 0.00 0.00 0.00 90 1018.1
20240418025602 23 110 1.6 3.2 0.00 0.00 0.00 90 1018.1
20240418025503 23 110 1.6 6.4 0.00 0.00 0.00 90 1018.1
20240418025403 23 110 1.6 6.4 0.00 0.00 0.00 90 1018.0
20240418025303 23 110 1.6 6.4 0.00 0.00 0.00 90 1018.0
20240418025204 23 110 1.6 6.4 0.00 0.00 0.00 90 1018.0
20240418025101 23 111 1.6 6.4 0.00 0.00 0.00 90 1018.0
20240418025004 23 123 0.0 6.4 0.00 0.00 0.00 90 1018.2
20240418024903 23 123 0.0 6.4 0.00 0.00 0.00 90 1018.1
20240418024803 23 123 0.0 6.4 0.00 0.00 0.00 90 1018.0
20240418024703 23 123 3.2 6.4 0.00 0.00 0.00 90 1018.1
20240418024602 23 125 1.6 6.4 0.00 0.00 0.00 90 1018.1
20240418024502 23 66 0.0 4.8 0.00 0.00 0.00 90 1018.0
20240418024404 23 66 0.0 4.8 0.00 0.00 0.00 90 1018.0
20240418024302 23 66 1.6 4.8 0.00 0.00 0.00 90 1018.0
20240418024202 23 66 1.6 4.8 0.00 0.00 0.00 90 1018.0
20240418024101 23 121 1.6 3.2 0.00 0.00 0.00 90 1018.0
20240418024004 23 121 0.0 3.2 0.00 0.00 0.00 90 1018.0
20240418023904 23 121 0.0 3.2 0.00 0.00 0.00 90 1018.1
20240418023802 23 121 0.0 3.2 0.00 0.00 0.00 90 1018.1
20240418023703 23 121 1.6 3.2 0.00 0.00 0.00 90 1018.1
20240418023604 23 121 1.6 3.2 0.00 0.00 0.00 90 1018.1
20240418023503 23 149 1.6 3.2 0.00 0.00 0.00 90 1018.1
20240418023402 23 149 1.6 3.2 0.00 0.00 0.00 90 1018.1
20240418023303 23 92 1.6 3.2 0.00 0.00 0.00 90 1018.1
20240418023203 23 92 0.0 4.8 0.00 0.00 0.00 90 1018.1
20240418023103 23 90 0.0 4.8 0.00 0.00 0.00 90 1018.0
20240418023004 23 114 0.0 4.8 0.00 0.00 0.00 90 1018.0
20240418022903 23 114 0.0 4.8 0.00 0.00 0.00 90 1017.8
20240418022803 23 114 0.0 4.8 0.00 0.00 0.00 90 1017.8
20240418022707 23 114 0.0 4.8 0.00 0.00 0.00 90 1017.8
20240418022602 23 114 0.0 4.8 0.00 0.00 0.00 90 1017.7
20240418022503 23 114 1.6 4.8 0.00 0.00 0.00 90 1017.7
20240418022402 23 114 1.6 4.8 0.00 0.00 0.00 90 1017.7
20240418022304 23 116 1.6 4.8 0.00 0.00 0.00 90 1017.6
20240418022203 23 113 0.0 4.8 0.00 0.00 0.00 90 1017.6
20240418022103 23 68 1.6 4.8 0.00 0.00 0.00 90 1017.6
20240418022003 23 68 1.6 4.8 0.00 0.00 0.00 90 1017.5
20240418021902 23 82 1.6 3.2 0.00 0.00 0.00 90 1017.6
20240418021804 23 80 0.0 3.2 0.00 0.00 0.00 90 1017.5
20240418021702 23 80 0.0 3.2 0.00 0.00 0.00 90 1017.5
20240418021603 23 76 0.0 3.2 0.00 0.00 0.00 90 1017.4
20240418021503 23 76 0.0 3.2 0.00 0.00 0.00 90 1017.5
20240418021403 23 76 0.0 3.2 0.00 0.00 0.00 90 1017.5
20240418021304 23 76 0.0 3.2 0.00 0.00 0.00 90 1017.6
20240418021203 23 75 0.0 1.6 0.00 0.00 0.00 90 1017.5
20240418021103 23 76 0.0 1.6 0.00 0.00 0.00 90 1017.6
20240418021003 23 76 0.0 1.6 0.00 0.00 0.00 90 1017.6
20240418020902 23 76 0.0 3.2 0.00 0.00 0.00 90 1017.6
20240418020804 23 76 0.0 3.2 0.00 0.00 0.00 90 1017.6
20240418020702 23 76 0.0 3.2 0.00 0.00 0.00 90 1017.5
20240418020603 23 76 0.0 3.2 0.00 0.00 0.00 90 1017.5
20240418020501 23 76 0.0 3.2 0.00 0.00 0.00 90 1017.4
20240418020404 23 76 0.0 3.2 0.00 0.00 0.00 90 1017.5
20240418020240 23 76 0.0 3.2 0.00 0.00 0.00 90 1017.4
20240418020131 23 76 0.0 3.2 0.00 0.00 0.00 90 1017.4
20240418020031 23 76 1.6 3.2 0.00 0.00 0.00 90 1017.4
20240418015932 23 76 0.0 3.2 0.00 0.00 0.00 90 1017.4
20240418015832 23 76 0.0 3.2 0.00 0.00 0.00 90 1017.3
20240418015731 23 75 0.0 3.2 0.00 0.00 0.00 90 1017.4
20240418015628 23 75 1.6 3.2 0.00 0.00 0.00 90 1017.3
20240418015528 23 75 0.0 3.2 0.00 0.00 0.00 90 1017.2
20240418015426 23 75 1.6 3.2 0.00 0.00 0.00 90 1017.2
20240418015324 23 75 1.6 3.2 0.00 0.00 0.00 90 1017.2
20240418015223 23 71 0.0 1.6 0.00 0.00 0.00 90 1017.3
20240418015119 23 71 0.0 1.6 0.00 0.00 0.00 90 1017.3
20240418015017 23 71 0.0 1.6 0.00 0.00 0.00 90 1017.3
20240418014916 23 71 0.0 3.2 0.00 0.00 0.00 90 1017.3
20240418014813 23 71 0.0 3.2 0.00 0.00 0.00 90 1017.3
20240418014712 23 71 0.0 3.2 0.00 0.00 0.00 90 1017.2
20240418014611 23 71 0.0 3.2 0.00 0.00 0.00 90 1017.2
20240418014509 23 71 0.0 3.2 0.00 0.00 0.00 90 1017.3
20240418014410 23 71 0.0 3.2 0.00 0.00 0.00 90 1017.3
20240418014308 23 71 0.0 3.2 0.00 0.00 0.00 90 1017.2
20240418014209 23 71 0.0 3.2 0.00 0.00 0.00 90 1017.1
20240418014109 23 71 1.6 3.2 0.00 0.00 0.00 90 1017.1
20240418014008 23 71 1.6 3.2 0.00 0.00 0.00 90 1017.1
20240418013908 23 71 1.6 3.2 0.00 0.00 0.00 90 1017.1
20240418013808 23 71 1.6 3.2 0.00 0.00 0.00 90 1017.1
20240418013708 23 71 1.6 3.2 0.00 0.00 0.00 90 1017.2
20240418013608 23 69 1.6 4.8 0.00 0.00 0.00 90 1017.3
20240418013509 23 69 1.6 4.8 0.00 0.00 0.00 90 1017.2
20240418013409 23 66 1.6 4.8 0.00 0.00 0.00 90 1017.2
20240418013307 23 87 0.0 4.8 0.00 0.00 0.00 90 1017.2
20240418013208 23 87 0.0 4.8 0.00 0.00 0.00 90 1017.2
20240418013108 23 87 0.0 4.8 0.00 0.00 0.00 90 1017.2
20240418013009 23 87 0.0 4.8 0.00 0.00 0.00 90 1017.1
20240418012909 23 87 1.6 4.8 0.00 0.00 0.00 90 1017.1
20240418012808 23 87 1.6 4.8 0.00 0.00 0.00 90 1017.2
20240418012709 23 89 1.6 4.8 0.00 0.00 0.00 90 1017.2
20240418012607 23 87 1.6 4.8 0.00 0.00 0.00 90 1017.2
20240418012508 23 90 1.6 4.8 0.00 0.00 0.00 90 1017.2
20240418012407 23 92 3.2 4.8 0.00 0.00 0.00 90 1017.1
20240418012308 23 93 1.6 4.8 0.00 0.00 0.00 90 1017.1
20240418012208 23 93 1.6 4.8 0.00 0.00 0.00 90 1017.1
20240418012108 23 94 3.2 4.8 0.00 0.00 0.00 90 1017.1
20240418012008 23 92 3.2 4.8 0.00 0.00 0.00 89 1017.0
20240418011907 23 93 3.2 4.8 0.00 0.00 0.00 89 1017.1
20240418011808 23 89 3.2 4.8 0.00 0.00 0.00 89 1017.1
20240418011707 23 90 1.6 4.8 0.00 0.00 0.00 89 1017.1
20240418011609 23 90 1.6 4.8 0.00 0.00 0.00 89 1017.2
20240418011508 23 90 1.6 4.8 0.00 0.00 0.00 89 1017.1
20240418011409 23 86 1.6 4.8 0.00 0.00 0.00 89 1017.1
20240418011308 23 86 1.6 4.8 0.00 0.00 0.00 89 1017.0
20240418011204 23 87 1.6 4.8 0.00 0.00 0.00 89 1016.9
20240418011101 23 89 1.6 4.8 0.00 0.00 0.00 89 1016.9
20240418011002 23 89 1.6 4.8 0.00 0.00 0.00 89 1017.0
20240418010904 23 92 1.6 4.8 0.00 0.00 0.00 89 1016.9
20240418010803 23 92 3.2 4.8 0.00 0.00 0.00 89 1016.9
20240418010704 23 71 3.2 4.8 0.00 0.00 0.00 89 1016.9
20240418010603 23 80 3.2 4.8 0.00 0.00 0.00 89 1016.9
20240418010501 23 69 1.6 4.8 0.00 0.00 0.00 89 1016.9
20240418010403 23 78 1.6 4.8 0.00 0.00 0.00 89 1016.9
20240418010302 23 80 1.6 4.8 0.00 0.00 0.00 89 1016.9
20240418010203 23 94 1.6 4.8 0.00 0.00 0.00 89 1016.8
20240418010103 23 96 1.6 4.8 0.00 0.00 0.00 89 1016.8
20240418010002 23 96 1.6 4.8 0.00 0.00 0.00 89 1016.8
20240418005903 23 65 1.6 4.8 0.00 0.00 0.00 89 1016.7
20240418005804 23 63 1.6 4.8 0.00 0.00 0.00 89 1016.7
20240418005704 23 63 1.6 4.8 0.00 0.00 0.00 89 1016.7
20240418005603 23 100 1.6 4.8 0.00 0.00 0.00 89 1016.6
20240418005504 23 102 1.6 4.8 0.00 0.00 0.00 89 1016.6
20240418005403 23 104 1.6 4.8 0.00 0.00 0.00 89 1016.6
20240418005303 23 72 1.6 4.8 0.00 0.00 0.00 89 1016.6
20240418005202 23 65 0.0 4.8 0.00 0.00 0.00 89 1016.7
20240418005103 23 63 0.0 4.8 0.00 0.00 0.00 89 1016.7
20240418005002 23 63 0.0 4.8 0.00 0.00 0.00 89 1016.6
20240418004903 23 63 1.6 4.8 0.00 0.00 0.00 89 1016.5
20240418004803 23 83 1.6 4.8 0.00 0.00 0.00 89 1016.6
20240418004702 23 162 1.6 4.8 0.00 0.00 0.00 89 1016.5
20240418004603 23 162 1.6 4.8 0.00 0.00 0.00 88 1016.6
20240418004504 23 96 1.6 4.8 0.00 0.00 0.00 88 1016.5
20240418004404 23 110 1.6 6.4 0.00 0.00 0.00 88 1016.5
20240418004303 24 72 1.6 6.4 0.00 0.00 0.00 88 1016.5
20240418004203 24 117 3.2 6.4 0.00 0.00 0.00 88 1016.4
20240418004101 24 99 3.2 6.4 0.00 0.00 0.00 88 1016.3
20240418003957 24 99 1.6 8.0 0.00 0.00 0.00 88 1016.4
20240418003855 24 63 1.6 8.0 0.00 0.00 0.00 88 1016.4
20240418003753 24 63 1.6 8.0 0.00 0.00 0.00 88 1016.4
20240418003653 24 99 3.2 8.0 0.00 0.00 0.00 88 1016.3
20240418003547 24 164 3.2 8.0 0.00 0.00 0.00 88 1016.3
20240418003446 24 116 3.2 8.0 0.00 0.00 0.00 88 1016.3
20240418003346 24 197 3.2 9.7 0.00 0.00 0.00 88 1016.2
20240418003242 24 141 3.2 9.7 0.00 0.00 0.00 88 1016.1
20240418003143 24 94 3.2 9.7 0.00 0.00 0.00 88 1016.0
20240418003041 24 48 3.2 9.7 0.00 0.00 0.00 87 1015.9
20240418002931 24 62 3.2 9.7 0.00 0.00 0.00 87 1016.0
20240418002832 24 73 3.2 9.7 0.00 0.00 0.00 87 1015.9
20240418002733 24 63 3.2 9.7 0.00 0.00 0.00 87 1016.0
20240418002630 24 97 3.2 9.7 0.00 0.00 0.00 87 1016.0
20240418002530 24 52 4.8 9.7 0.00 0.00 0.00 87 1016.1
20240418002429 24 109 4.8 9.7 0.00 0.00 0.00 87 1016.1
20240418002328 24 65 3.2 8.0 0.00 0.00 0.00 87 1016.0
20240418002226 24 59 3.2 8.0 0.00 0.00 0.00 87 1016.1
20240418002120 24 102 3.2 8.0 0.00 0.00 0.00 87 1016.1
20240418002013 24 7 1.6 8.0 0.00 0.00 0.00 87 1016.1
20240418001912 24 58 3.2 8.0 0.00 0.00 0.00 87 1016.1
20240418001810 24 63 3.2 8.0 0.00 0.00 0.00 87 1016.1
20240418001707 24 107 3.2 8.0 0.00 0.00 0.00 87 1016.1
20240418001606 24 80 1.6 8.0 0.00 0.00 0.00 87 1016.1
20240418001505 24 79 3.2 8.0 0.00 0.00 0.00 87 1016.0
20240418001406 24 79 3.2 8.0 0.00 0.00 0.00 87 1016.0
20240418001305 24 114 3.2 9.7 0.00 0.00 0.00 87 1016.1
20240418001205 24 117 3.2 9.7 0.00 0.00 0.00 87 1016.2
20240418001106 24 68 4.8 9.7 0.00 0.00 0.00 87 1016.2
20240418001007 25 65 4.8 9.7 0.00 0.00 0.00 87 1016.3
20240418000906 25 99 1.6 9.7 0.00 0.00 0.00 87 1016.3
20240418000806 25 89 1.6 9.7 0.00 0.00 0.00 87 1016.3
20240418000707 25 114 1.6 9.7 0.00 0.00 0.00 87 1016.3
20240418000605 25 128 3.2 9.7 0.00 0.00 0.00 87 1016.4
20240418000507 25 86 4.8 9.7 0.00 0.00 0.00 87 1016.4
20240418000406 25 76 4.8 9.7 0.00 0.00 0.00 86 1016.4
20240418000306 25 100 4.8 9.7 0.00 0.00 0.00 86 1016.4
20240418000206 25 79 4.8 9.7 0.00 0.00 0.00 86 1016.4
20240418000106 25 120 4.8 9.7 0.00 0.00 0.00 86 1016.6
20240418000005 25 61 4.8 9.7 0.00 0.00 0.00 86 1016.5
20240417235905 25 104 4.8 9.7 0.00 0.00 0.00 86 1016.5
20240417235805 25 86 3.2 8.0 0.00 0.00 0.00 86 1016.5
20240417235705 25 78 1.6 8.0 0.00 0.00 0.00 86 1016.4
20240417235605 25 76 1.6 8.0 0.00 0.00 0.00 86 1016.4
20240417235505 25 76 1.6 8.0 0.00 0.00 0.00 86 1016.4
20240417235405 25 76 3.2 8.0 0.00 0.00 0.00 86 1016.4
20240417235307 25 71 3.2 8.0 0.00 0.00 0.00 86 1016.5
20240417235205 25 87 4.8 8.0 0.00 0.00 0.00 86 1016.4
20240417235105 25 109 3.2 8.0 0.00 0.00 0.00 86 1016.4
20240417235005 25 89 3.2 8.0 0.00 0.00 0.00 86 1016.3
20240417234905 25 87 3.2 6.4 0.00 0.00 0.00 86 1016.3
20240417234807 25 73 3.2 8.0 0.00 0.00 0.00 86 1016.4
20240417234705 25 68 1.6 8.0 0.00 0.00 0.00 86 1016.5
20240417234604 25 73 1.6 8.0 0.00 0.00 0.00 86 1016.5
20240417234505 25 76 1.6 11.3 0.00 0.00 0.00 85 1016.5
20240417234406 25 76 3.2 11.3 0.00 0.00 0.00 85 1016.5
20240417234305 25 76 3.2 11.3 0.00 0.00 0.00 86 1016.4
20240417234205 25 107 3.2 11.3 0.00 0.00 0.00 85 1016.3
20240417234105 25 68 3.2 11.3 0.00 0.00 0.00 85 1016.3
20240417234005 25 78 3.2 11.3 0.00 0.00 0.00 85 1016.2
20240417233904 25 80 4.8 11.3 0.00 0.00 0.00 85 1016.1
20240417233807 25 79 3.2 11.3 0.00 0.00 0.00 85 1016.2
20240417233704 25 76 4.8 11.3 0.00 0.00 0.00 85 1016.1
20240417233605 25 55 6.4 11.3 0.00 0.00 0.00 85 1016.0
20240417233504 25 110 4.8 9.7 0.00 0.00 0.00 85 1015.9
20240417233407 25 69 3.2 9.7 0.00 0.00 0.00 85 1015.8
20240417233305 25 75 4.8 9.7 0.00 0.00 0.00 85 1015.8
20240417233204 25 78 3.2 9.7 0.00 0.00 0.00 85 1015.8
20240417233105 25 65 3.2 9.7 0.00 0.00 0.00 85 1015.8
20240417233005 25 86 4.8 9.7 0.00 0.00 0.00 85 1015.8
20240417232904 25 79 4.8 6.4 0.00 0.00 0.00 85 1015.9
20240417232806 25 85 4.8 6.4 0.00 0.00 0.00 85 1016.0
20240417232705 25 82 4.8 6.4 0.00 0.00 0.00 85 1016.0
20240417232605 25 49 3.2 6.4 0.00 0.00 0.00 85 1016.0
20240417232505 25 79 3.2 6.4 0.00 0.00 0.00 85 1015.9
20240417232405 25 79 3.2 6.4 0.00 0.00 0.00 85 1015.9
20240417232304 25 116 3.2 6.4 0.00 0.00 0.00 85 1015.9
20240417232204 25 79 3.2 6.4 0.00 0.00 0.00 84 1015.9
20240417232104 25 113 3.2 6.4 0.00 0.00 0.00 84 1015.9
20240417232004 25 86 1.6 6.4 0.00 0.00 0.00 85 1015.9
20240417231904 25 68 1.6 6.4 0.00 0.00 0.00 84 1015.9
20240417231805 25 68 1.6 6.4 0.00 0.00 0.00 84 1015.9
20240417231705 25 68 1.6 6.4 0.00 0.00 0.00 84 1016.0
20240417231604 25 68 3.2 6.4 0.00 0.00 0.00 84 1015.9
20240417231504 25 107 3.2 8.0 0.00 0.00 0.00 84 1016.0
20240417231404 25 83 3.2 8.0 0.00 0.00 0.00 84 1016.0
20240417231306 25 106 3.2 8.0 0.00 0.00 0.00 85 1016.0
20240417231204 25 86 3.2 8.0 0.00 0.00 0.00 84 1016.0
20240417231104 25 89 3.2 8.0 0.00 0.00 0.00 84 1016.0
20240417231004 25 73 1.6 9.7 0.00 0.00 0.00 84 1016.0
20240417230904 25 66 4.8 9.7 0.00 0.00 0.00 84 1016.2
20240417230804 25 66 4.8 9.7 0.00 0.00 0.00 84 1016.1
20240417230704 25 73 4.8 9.7 0.00 0.00 0.00 84 1016.1
20240417230604 25 92 3.2 9.7 0.00 0.00 0.00 84 1016.1
20240417230504 25 83 3.2 9.7 0.00 0.00 0.00 84 1016.3
20240417230403 25 109 1.6 9.7 0.00 0.00 0.00 84 1016.3
20240417230306 25 79 3.2 9.7 0.00 0.00 0.00 84 1016.3
20240417230204 25 75 3.2 9.7 0.00 0.00 0.00 84 1016.2
20240417230103 25 69 6.4 9.7 0.00 0.00 0.00 84 1016.1
20240417230003 25 104 4.8 9.7 0.00 0.00 0.00 84 1016.1
20240417225906 25 59 3.2 9.7 0.00 0.00 0.00 83 1016.0
20240417225803 25 61 4.8 9.7 0.00 0.00 0.00 83 1016.1
20240417225704 25 44 6.4 9.7 0.00 0.00 0.00 83 1016.1
20240417225604 25 102 6.4 9.7 0.00 0.00 0.00 83 1016.1
20240417225503 25 116 3.2 9.7 0.00 0.00 0.00 83 1016.2
20240417225404 25 65 4.8 9.7 0.00 0.00 0.00 83 1016.2
20240417225303 25 65 6.4 9.7 0.00 0.00 0.00 83 1016.2
20240417225203 25 100 6.4 9.7 0.00 0.00 0.00 83 1016.2
20240417225103 25 102 6.4 9.7 0.00 0.00 0.00 83 1016.3
20240417225005 25 65 4.8 8.0 0.00 0.00 0.00 83 1016.2
20240417224905 25 71 4.8 8.0 0.00 0.00 0.00 83 1016.3
20240417224803 25 75 4.8 11.3 0.00 0.00 0.00 82 1016.3
20240417224703 25 106 4.8 11.3 0.00 0.00 0.00 82 1016.3
20240417224604 25 52 4.8 11.3 0.00 0.00 0.00 82 1016.2
20240417224503 25 89 4.8 11.3 0.00 0.00 0.00 82 1016.2
20240417224403 25 86 3.2 11.3 0.00 0.00 0.00 82 1016.2
20240417224303 25 110 3.2 11.3 0.00 0.00 0.00 82 1016.2
20240417224204 25 80 4.8 11.3 0.00 0.00 0.00 82 1016.1
20240417224104 25 94 6.4 11.3 0.00 0.00 0.00 82 1016.0
20240417224004 25 73 4.8 11.3 0.00 0.00 0.00 82 1016.1
20240417223903 25 90 6.4 11.3 0.00 0.00 0.00 82 1016.0
20240417223803 25 69 4.8 9.7 0.00 0.00 0.00 82 1016.1
20240417223704 25 73 4.8 8.0 0.00 0.00 0.00 82 1016.1
20240417223603 25 90 3.2 8.0 0.00 0.00 0.00 82 1016.1
20240417223504 25 89 3.2 8.0 0.00 0.00 0.00 82 1016.1
20240417223404 25 76 3.2 8.0 0.00 0.00 0.00 82 1016.2
20240417223303 26 99 4.8 8.0 0.00 0.00 0.00 82 1016.2
20240417223204 26 78 4.8 8.0 0.00 0.00 0.00 82 1016.2
20240417223105 26 85 4.8 8.0 0.00 0.00 0.00 82 1016.2
20240417223003 26 82 4.8 8.0 0.00 0.00 0.00 82 1016.2
20240417222903 26 106 4.8 8.0 0.00 0.00 0.00 81 1016.2
20240417222804 26 75 3.2 8.0 0.00 0.00 0.00 81 1016.3
20240417222703 26 104 4.8 8.0 0.00 0.00 0.00 81 1016.4
20240417222603 26 76 4.8 8.0 0.00 0.00 0.00 81 1016.4
20240417222504 26 76 3.2 8.0 0.00 0.00 0.00 81 1016.4
20240417222403 26 103 3.2 8.0 0.00 0.00 0.00 81 1016.4
20240417222303 26 73 3.2 8.0 0.00 0.00 0.00 81 1016.4
20240417222203 26 71 3.2 8.0 0.00 0.00 0.00 80 1016.4
20240417222103 26 121 4.8 8.0 0.00 0.00 0.00 80 1016.5
20240417222003 26 106 3.2 8.0 0.00 0.00 0.00 80 1016.5
20240417221903 26 106 3.2 6.4 0.00 0.00 0.00 80 1016.3
20240417221803 26 80 3.2 6.4 0.00 0.00 0.00 79 1016.3
20240417221702 26 87 3.2 6.4 0.00 0.00 0.00 79 1016.4
20240417221602 26 72 3.2 4.8 0.00 0.00 0.00 78 1016.4
20240417221504 26 118 3.2 4.8 0.00 0.00 0.00 78 1016.5
20240417221404 26 118 3.2 4.8 0.00 0.00 0.00 78 1016.5
20240417221232 26 76 3.2 4.8 0.00 0.00 0.00 78 1016.5
20240417221132 26 87 1.6 6.4 0.00 0.00 0.00 77 1016.5
20240417221033 26 78 1.6 6.4 0.00 0.00 0.00 78 1016.5
20240417220932 26 78 1.6 6.4 0.00 0.00 0.00 78 1016.6
20240417220832 26 71 1.6 6.4 0.00 0.00 0.00 79 1016.6
20240417220732 26 71 1.6 6.4 0.00 0.00 0.00 79 1016.6
20240417220633 26 71 1.6 6.4 0.00 0.00 0.00 79 1016.6
20240417220531 26 71 1.6 6.4 0.00 0.00 0.00 79 1016.6
20240417220433 26 72 1.6 6.4 0.00 0.00 0.00 78 1016.6
20240417220331 26 85 3.2 6.4 0.00 0.00 0.00 78 1016.6
20240417220232 26 120 3.2 6.4 0.00 0.00 0.00 77 1016.5
20240417220131 26 111 4.8 6.4 0.00 0.00 0.00 77 1016.5
20240417220031 26 107 4.8 6.4 0.00 0.00 0.00 77 1016.5
20240417215933 26 49 4.8 6.4 0.00 0.00 0.00 77 1016.5
20240417215831 26 94 4.8 6.4 0.00 0.00 0.00 77 1016.5
20240417215730 26 66 4.8 6.4 0.00 0.00 0.00 77 1016.5
20240417215632 26 97 4.8 6.4 0.00 0.00 0.00 79 1016.4
20240417215531 26 82 4.8 6.4 0.00 0.00 0.00 78 1016.5
20240417215433 26 73 3.2 6.4 0.00 0.00 0.00 78 1016.5
20240417215332 26 59 1.6 8.0 0.00 0.00 0.00 79 1016.6
20240417215232 26 124 1.6 8.0 0.00 0.00 0.00 80 1016.6
20240417215130 26 124 3.2 8.0 0.00 0.00 0.00 78 1016.5
20240417215031 26 123 1.6 8.0 0.00 0.00 0.00 79 1016.6
20240417214932 26 104 1.6 9.7 0.00 0.00 0.00 79 1016.6
20240417214821 26 104 3.2 9.7 0.00 0.00 0.00 79 1016.7
20240417214720 26 83 3.2 9.7 0.00 0.00 0.00 79 1016.7
20240417214618 26 71 3.2 9.7 0.00 0.00 0.00 78 1016.7
20240417214517 26 71 3.2 9.7 0.00 0.00 0.00 78 1016.8
20240417214415 26 86 4.8 9.7 0.00 0.00 0.00 78 1016.8
20240417214312 26 94 4.8 9.7 0.00 0.00 0.00 78 1016.8
20240417214211 26 65 6.4 9.7 0.00 0.00 0.00 78 1016.9
20240417214110 26 56 6.4 9.7 0.00 0.00 0.00 78 1016.8
20240417214003 26 73 4.8 8.0 0.00 0.00 0.00 77 1016.8
20240417213903 26 68 4.8 8.0 0.00 0.00 0.00 77 1016.9
20240417213803 27 69 3.2 8.0 0.00 0.00 0.00 77 1016.9
20240417213703 27 65 4.8 8.0 0.00 0.00 0.00 78 1017.0
20240417213602 27 68 4.8 8.0 0.00 0.00 0.00 78 1017.0
20240417213504 27 92 3.2 6.4 0.00 0.00 0.00 78 1017.0
20240417213403 27 75 3.2 6.4 0.00 0.00 0.00 78 1017.0
20240417213303 26 99 3.2 8.0 0.00 0.00 0.00 78 1017.0
20240417213202 26 73 3.2 8.0 0.00 0.00 0.00 79 1016.9
20240417213102 26 68 1.6 8.0 0.00 0.00 0.00 80 1017.0
20240417213002 26 78 3.2 8.0 0.00 0.00 0.00 80 1017.0
20240417212903 26 80 3.2 8.0 0.00 0.00 0.00 82 1017.0
20240417212802 26 59 1.6 8.0 0.00 0.00 0.00 82 1016.9
20240417212704 26 75 0.0 9.7 0.00 0.00 0.00 81 1017.0
20240417212601 26 75 1.6 9.7 0.00 0.00 0.00 82 1017.0
20240417212502 26 75 3.2 9.7 0.00 0.00 0.00 81 1017.0
20240417212403 26 124 3.2 9.7 0.00 0.00 0.00 81 1017.1
20240417212302 26 72 4.8 9.7 0.00 0.00 0.00 80 1017.1
20240417212203 26 92 4.8 9.7 0.00 0.00 0.00 80 1017.1
20240417212103 26 87 4.8 9.7 0.00 0.00 0.00 80 1017.0
20240417212002 26 72 4.8 9.7 0.00 0.00 0.00 80 1017.0
20240417211903 26 103 4.8 9.7 0.00 0.00 0.00 79 1017.1
20240417211803 26 82 4.8 9.7 0.00 0.00 0.00 79 1017.1
20240417211702 26 71 4.8 9.7 0.00 0.00 0.00 79 1017.2
20240417211603 27 85 3.2 9.7 0.00 0.00 0.00 79 1017.1
20240417211502 27 102 3.2 9.7 0.00 0.00 0.00 80 1017.2
20240417211403 27 69 3.2 9.7 0.00 0.00 0.00 79 1017.2
20240417211302 27 72 3.2 9.7 0.00 0.00 0.00 78 1017.1
20240417211203 27 72 4.8 9.7 0.00 0.00 0.00 78 1017.3
20240417211102 27 87 3.2 9.7 0.00 0.00 0.00 78 1017.2
20240417211005 27 120 3.2 9.7 0.00 0.00 0.00 78 1017.3
20240417210903 27 106 3.2 9.7 0.00 0.00 0.00 77 1017.3
20240417210802 27 73 3.2 9.7 0.00 0.00 0.00 77 1017.3
20240417210702 27 102 3.2 9.7 0.00 0.00 0.00 77 1017.2
20240417210602 27 83 3.2 9.7 0.00 0.00 0.00 77 1017.2
20240417210503 27 78 4.8 9.7 0.00 0.00 0.00 76 1017.3
20240417210404 27 63 4.8 9.7 0.00 0.00 0.00 76 1017.3
20240417210303 27 134 4.8 8.0 0.00 0.00 0.00 78 1017.3
20240417210203 26 61 4.8 8.0 0.00 0.00 0.00 78 1017.3
20240417210102 26 135 4.8 8.0 0.00 0.00 0.00 78 1017.4
20240417210002 26 48 3.2 8.0 0.00 0.00 0.00 78 1017.4
20240417205903 26 100 1.6 6.4 0.00 0.00 0.00 78 1017.5
20240417205802 26 178 1.6 6.4 0.00 0.00 0.00 78 1017.6
20240417205703 26 203 3.2 6.4 0.00 0.00 0.00 78 1017.6
20240417205602 26 204 3.2 6.4 0.00 0.00 0.00 78 1017.6
20240417205504 26 89 1.6 6.4 0.00 0.00 0.00 78 1017.7
20240417205403 26 86 1.6 6.4 0.00 0.00 0.00 78 1017.6
20240417205302 26 79 1.6 6.4 0.00 0.00 0.00 79 1017.5
20240417205202 26 42 3.2 6.4 0.00 0.00 0.00 78 1017.6
20240417205103 26 193 3.2 6.4 0.00 0.00 0.00 78 1017.6
20240417205003 26 131 1.6 6.4 0.00 0.00 0.00 79 1017.7
20240417204903 26 155 0.0 6.4 0.00 0.00 0.00 79 1017.6
20240417204802 26 155 1.6 6.4 0.00 0.00 0.00 79 1017.6
20240417204702 26 155 1.6 6.4 0.00 0.00 0.00 79 1017.6
20240417204602 26 162 3.2 6.4 0.00 0.00 0.00 78 1017.7
20240417204503 26 121 3.2 6.4 0.00 0.00 0.00 79 1017.6
20240417204402 26 182 0.0 6.4 0.00 0.00 0.00 79 1017.6
20240417204303 26 203 0.0 6.4 0.00 0.00 0.00 78 1017.6
20240417204202 26 203 1.6 6.4 0.00 0.00 0.00 77 1017.7
20240417204102 26 212 1.6 6.4 0.00 0.00 0.00 77 1017.7
20240417204002 26 212 1.6 6.4 0.00 0.00 0.00 77 1017.7
20240417203903 27 255 1.6 6.4 0.00 0.00 0.00 77 1017.7
20240417203803 27 121 1.6 8.0 0.00 0.00 0.00 77 1017.7
20240417203702 27 116 0.0 8.0 0.00 0.00 0.00 77 1017.7
20240417203601 26 114 1.6 8.0 0.00 0.00 0.00 77 1017.6
20240417203503 27 114 3.2 8.0 0.00 0.00 0.00 77 1017.5
20240417203403 27 120 3.2 8.0 0.00 0.00 0.00 77 1017.5
20240417203302 27 97 3.2 8.0 0.00 0.00 0.00 76 1017.4
20240417203202 26 102 3.2 8.0 0.00 0.00 0.00 76 1017.3
20240417203101 26 92 3.2 9.7 0.00 0.00 0.00 76 1017.4
20240417203004 27 69 3.2 9.7 0.00 0.00 0.00 76 1017.4
20240417202901 27 97 3.2 9.7 0.00 0.00 0.00 76 1017.4
20240417202803 27 221 3.2 9.7 0.00 0.00 0.00 77 1017.5
20240417202702 27 182 3.2 9.7 0.00 0.00 0.00 76 1017.5
20240417202602 27 148 3.2 9.7 0.00 0.00 0.00 76 1017.5
20240417202502 27 347 3.2 9.7 0.00 0.00 0.00 76 1017.5
20240417202402 27 176 3.2 9.7 0.00 0.00 0.00 76 1017.5
20240417202301 27 79 4.8 9.7 0.00 0.00 0.00 75 1017.4
20240417202202 27 63 4.8 9.7 0.00 0.00 0.00 75 1017.4
20240417202104 27 128 4.8 9.7 0.00 0.00 0.00 75 1017.3
20240417202003 27 116 6.4 9.7 0.00 0.00 0.00 75 1017.4
20240417201901 27 118 4.8 9.7 0.00 0.00 0.00 76 1017.4
20240417201801 27 73 4.8 9.7 0.00 0.00 0.00 75 1017.4
20240417201703 27 94 3.2 9.7 0.00 0.00 0.00 75 1017.5
20240417201603 27 110 3.2 9.7 0.00 0.00 0.00 75 1017.5
20240417201503 27 0 3.2 9.7 0.00 0.00 0.00 75 1017.6
20240417201402 27 13 4.8 9.7 0.00 0.00 0.00 75 1017.6
20240417201302 27 69 4.8 9.7 0.00 0.00 0.00 75 1017.6
20240417201203 27 106 6.4 9.7 0.00 0.00 0.00 75 1017.5
20240417201102 27 76 4.8 9.7 0.00 0.00 0.00 75 1017.4
20240417201003 27 73 3.2 11.3 0.00 0.00 0.00 75 1017.5
20240417200903 27 78 1.6 11.3 0.00 0.00 0.00 75 1017.5
20240417200802 27 65 3.2 11.3 0.00 0.00 0.00 75 1017.6
20240417200703 27 65 3.2 11.3 0.00 0.00 0.00 75 1017.7
20240417200602 27 68 1.6 11.3 0.00 0.00 0.00 76 1017.7
20240417200503 27 171 1.6 11.3 0.00 0.00 0.00 75 1017.7
20240417200402 27 65 6.4 11.3 0.00 0.00 0.00 75 1017.7
20240417200302 27 65 6.4 11.3 0.00 0.00 0.00 75 1017.7
20240417200201 27 63 4.8 11.3 0.00 0.00 0.00 75 1017.7
20240417200102 27 110 3.2 11.3 0.00 0.00 0.00 75 1017.7
20240417200004 27 68 1.6 8.0 0.00 0.00 0.00 76 1017.8
20240417195902 27 186 1.6 8.0 0.00 0.00 0.00 75 1017.7
20240417195802 27 234 1.6 8.0 0.00 0.00 0.00 75 1017.8
20240417195703 27 233 3.2 8.0 0.00 0.00 0.00 74 1017.8
20240417195602 27 148 3.2 9.7 0.00 0.00 0.00 74 1017.8
20240417195501 27 99 1.6 9.7 0.00 0.00 0.00 75 1017.7
20240417195402 27 51 1.6 9.7 0.00 0.00 0.00 75 1017.8
20240417195302 27 45 1.6 9.7 0.00 0.00 0.00 75 1017.9
20240417195201 27 80 1.6 9.7 0.00 0.00 0.00 76 1017.9
20240417195102 27 78 3.2 9.7 0.00 0.00 0.00 74 1017.9
20240417195003 27 175 3.2 9.7 0.00 0.00 0.00 74 1017.9
20240417194902 27 82 3.2 9.7 0.00 0.00 0.00 74 1017.9
20240417194803 27 97 3.2 9.7 0.00 0.00 0.00 75 1017.9
20240417194702 27 76 4.8 9.7 0.00 0.00 0.00 76 1018.1
20240417194602 27 114 3.2 8.0 0.00 0.00 0.00 76 1018.1
20240417194504 27 66 3.2 8.0 0.00 0.00 0.00 75 1018.1
20240417194403 27 69 3.2 8.0 0.00 0.00 0.00 75 1018.1
20240417194302 27 72 3.2 8.0 0.00 0.00 0.00 75 1018.1
20240417194203 27 113 3.2 8.0 0.00 0.00 0.00 76 1018.1
20240417194102 27 121 3.2 8.0 0.00 0.00 0.00 75 1018.1
20240417194002 27 103 3.2 8.0 0.00 0.00 0.00 75 1018.2
20240417193902 27 103 3.2 8.0 0.00 0.00 0.00 75 1018.1
20240417193802 27 103 3.2 8.0 0.00 0.00 0.00 75 1018.1
20240417193703 27 127 3.2 8.0 0.00 0.00 0.00 75 1018.1
20240417193602 27 145 3.2 8.0 0.00 0.00 0.00 74 1018.1
20240417193502 27 151 3.2 8.0 0.00 0.00 0.00 75 1018.2
20240417193401 27 83 3.2 8.0 0.00 0.00 0.00 74 1018.3
20240417193302 27 54 4.8 8.0 0.00 0.00 0.00 75 1018.1
20240417193202 27 62 4.8 8.0 0.00 0.00 0.00 74 1018.2
20240417193104 27 141 3.2 9.7 0.00 0.00 0.00 74 1018.2
20240417193003 27 24 3.2 9.7 0.00 0.00 0.00 75 1018.2
20240417192902 27 58 3.2 9.7 0.00 0.00 0.00 76 1018.2
20240417192802 27 96 1.6 9.7 0.00 0.00 0.00 76 1018.3
20240417192702 27 66 1.6 9.7 0.00 0.00 0.00 77 1018.2
20240417192603 27 149 1.6 9.7 0.00 0.00 0.00 76 1018.3
20240417192502 27 0 3.2 9.7 0.00 0.00 0.00 76 1018.2
20240417192403 27 63 3.2 9.7 0.00 0.00 0.00 76 1018.2
20240417192303 27 49 4.8 9.7 0.00 0.00 0.00 76 1018.3
20240417192202 27 144 3.2 9.7 0.00 0.00 0.00 75 1018.3
20240417192102 27 137 3.2 4.8 0.00 0.00 0.00 75 1018.3
20240417192004 27 149 3.2 4.8 0.00 0.00 0.00 75 1018.2
20240417191902 27 78 3.2 4.8 0.00 0.00 0.00 76 1018.2
20240417191801 27 78 3.2 4.8 0.00 0.00 0.00 76 1018.2
20240417191703 27 78 3.2 8.0 0.00 0.00 0.00 76 1018.2
20240417191602 27 78 3.2 8.0 0.00 0.00 0.00 76 1018.2
20240417191503 27 78 3.2 11.3 0.00 0.00 0.00 76 1018.2
20240417191401 27 72 3.2 11.3 0.00 0.00 0.00 76 1018.1
20240417191302 27 93 3.2 11.3 0.00 0.00 0.00 76 1018.2
20240417191202 27 59 3.2 11.3 0.00 0.00 0.00 75 1018.2
20240417191103 27 69 3.2 11.3 0.00 0.00 0.00 76 1018.1
20240417191004 27 34 3.2 11.3 0.00 0.00 0.00 76 1018.1
20240417190901 27 27 4.8 11.3 0.00 0.00 0.00 75 1018.1
20240417190802 27 82 3.2 11.3 0.00 0.00 0.00 76 1018.0
20240417190703 27 68 4.8 11.3 0.00 0.00 0.00 74 1018.0
20240417190603 27 92 4.8 11.3 0.00 0.00 0.00 74 1017.9
20240417190503 27 51 4.8 11.3 0.00 0.00 0.00 75 1018.0
20240417190402 27 62 3.2 9.7 0.00 0.00 0.00 75 1018.0
20240417190303 27 110 3.2 9.7 0.00 0.00 0.00 75 1018.0
20240417190203 27 71 4.8 9.7 0.00 0.00 0.00 75 1018.0
20240417190101 27 72 4.8 9.7 0.00 0.00 0.00 73 1018.1
20240417190003 27 86 4.8 9.7 0.00 0.00 0.00 73 1018.0
20240417185903 27 59 4.8 11.3 0.00 0.00 0.00 74 1018.1
20240417185802 27 65 4.8 11.3 0.00 0.00 0.00 75 1018.0
20240417185701 27 78 4.8 11.3 0.00 0.00 0.00 75 1018.0
20240417185602 27 354 3.2 11.3 0.00 0.00 0.00 76 1018.1
20240417185503 27 4 3.2 11.3 0.00 0.00 0.00 76 1018.0
20240417185402 27 72 3.2 11.3 0.00 0.00 0.00 76 1018.1
20240417185302 27 107 3.2 11.3 0.00 0.00 0.00 74 1018.1
20240417185203 27 72 4.8 11.3 0.00 0.00 0.00 76 1018.0
20240417185102 27 109 4.8 11.3 0.00 0.00 0.00 75 1018.0
20240417185002 27 109 4.8 11.3 0.00 0.00 0.00 75 1018.0
20240417184902 27 61 6.4 14.5 0.00 0.00 0.00 75 1018.0
20240417184802 27 103 4.8 14.5 0.00 0.00 0.00 75 1018.2
20240417184702 27 89 4.8 14.5 0.00 0.00 0.00 75 1018.1
20240417184604 27 87 4.8 14.5 0.00 0.00 0.00 75 1018.1
20240417184504 27 48 4.8 14.5 0.00 0.00 0.00 75 1018.1
20240417184403 27 56 4.8 14.5 0.00 0.00 0.00 75 1018.1
20240417184304 27 76 4.8 14.5 0.00 0.00 0.00 75 1018.2
20240417184202 27 61 6.4 14.5 0.00 0.00 0.00 74 1018.1
20240417184102 27 65 6.4 14.5 0.00 0.00 0.00 74 1018.2
20240417184004 27 134 4.8 14.5 0.00 0.00 0.00 75 1018.2
20240417183902 27 30 3.2 11.3 0.00 0.00 0.00 75 1018.1
20240417183802 27 212 4.8 11.3 0.00 0.00 0.00 74 1018.2
20240417183702 27 69 4.8 11.3 0.00 0.00 0.00 75 1018.1
20240417183602 27 58 4.8 11.3 0.00 0.00 0.00 75 1018.1
20240417183504 27 85 4.8 11.3 0.00 0.00 0.00 75 1018.1
20240417183402 27 69 4.8 11.3 0.00 0.00 0.00 75 1018.2
20240417183303 27 63 6.4 11.3 0.00 0.00 0.00 76 1018.1
20240417183201 27 89 4.8 11.3 0.00 0.00 0.00 76 1018.1
20240417183102 27 72 6.4 11.3 0.00 0.00 0.00 76 1018.2
20240417183002 27 73 6.4 11.3 0.00 0.00 0.00 76 1018.2
20240417182902 27 55 4.8 11.3 0.00 0.00 0.00 76 1018.2
20240417182802 27 45 3.2 9.7 0.00 0.00 0.00 76 1018.3
20240417182703 27 89 4.8 9.7 0.00 0.00 0.00 76 1018.4
20240417182603 27 124 4.8 9.7 0.00 0.00 0.00 76 1018.5
20240417182501 27 89 1.6 3.2 0.00 0.00 0.00 76 1018.4
20240417182402 -17 0.0 0.0 0.00 0.00 0.00 1018.5
20240417182302 -17 0.0 6.4 0.00 0.00 0.00 1018.4
20240417182202 -17 0.0 6.4 0.00 0.00 0.00 1018.4
20240417182103 -17 0.0 6.4 0.00 0.00 0.00 1018.4
20240417182004 -17 0.0 6.4 0.00 0.00 0.00 1018.4
20240417181903 -17 0.0 6.4 0.00 0.00 0.00 1018.4
20240417181804 27 63 4.8 6.4 0.00 0.00 0.00 78 1018.5
20240417181703 27 63 4.8 8.0 0.00 0.00 0.00 78 1018.4
20240417181604 27 63 4.8 8.0 0.00 0.00 0.00 78 1018.4
20240417181502 27 63 4.8 8.0 0.00 0.00 0.00 78 1018.5
20240417181403 27 63 4.8 9.7 0.00 0.00 0.00 78 1018.4
20240417181301 27 135 3.2 9.7 0.00 0.00 0.00 78 1018.3
20240417181202 27 121 3.2 9.7 0.00 0.00 0.00 78 1018.4
20240417181105 27 155 1.6 9.7 0.00 0.00 0.00 79 1018.3
20240417181004 27 56 3.2 9.7 0.00 0.00 0.00 78 1018.4
20240417180903 27 63 3.2 9.7 0.00 0.00 0.00 78 1018.3
20240417180805 27 125 4.8 9.7 0.00 0.00 0.00 78 1018.3
20240417180704 27 59 4.8 9.7 0.00 0.00 0.00 77 1018.3
20240417180601 27 93 6.4 9.7 0.00 0.00 0.00 77 1018.3
20240417180504 27 142 4.8 9.7 0.00 0.00 0.00 78 1018.2
20240417180402 27 114 4.8 9.7 0.00 0.00 0.00 77 1018.2
20240417180303 27 97 6.4 9.7 0.00 0.00 0.00 77 1018.0
20240417180200 27 55 4.8 9.7 0.00 0.00 0.00 78 1018.0
20240417180058 27 54 4.8 8.0 0.00 0.00 0.00 78 1018.0
20240417175957 27 55 4.8 8.0 0.00 0.00 0.00 78 1018.0
20240417175856 27 63 4.8 8.0 0.00 0.00 0.00 77 1018.1
20240417175756 27 66 3.2 8.0 0.00 0.00 0.00 78 1018.1
20240417175657 27 49 3.2 8.0 0.00 0.00 0.00 78 1018.2
20240417175555 27 89 3.2 8.0 0.00 0.00 0.00 78 1018.2
20240417175456 27 59 4.8 8.0 0.00 0.00 0.00 78 1018.3
20240417175357 27 104 3.2 8.0 0.00 0.00 0.00 78 1018.3
20240417175257 27 97 1.6 8.0 0.00 0.00 0.00 77 1018.3
20240417175156 27 162 4.8 8.0 0.00 0.00 0.00 79 1018.4
20240417175057 27 162 4.8 8.0 0.00 0.00 0.00 79 1018.4
20240417174956 27 162 4.8 8.0 0.00 0.00 0.00 79 1018.4
20240417174857 27 162 4.8 8.0 0.00 0.00 0.00 79 1018.5
20240417174755 27 145 4.8 11.3 0.00 0.00 0.00 79 1018.5
20240417174655 27 82 3.2 11.3 0.00 0.00 0.00 79 1018.5
20240417174556 27 69 3.2 11.3 0.00 0.00 0.00 80 1018.4
20240417174456 27 68 3.2 11.3 0.00 0.00 0.00 80 1018.5
20240417174354 26 82 3.2 11.3 0.00 0.00 0.00 80 1018.5
20240417174255 26 116 3.2 11.3 0.00 0.00 0.00 79 1018.5
20240417174157 26 100 1.6 11.3 0.00 0.00 0.00 80 1018.5
20240417174058 26 85 3.2 11.3 0.00 0.00 0.00 80 1018.5
20240417173956 26 144 4.8 11.3 0.00 0.00 0.00 80 1018.5
20240417173857 26 185 3.2 11.3 0.00 0.00 0.00 80 1018.6
20240417173755 26 52 3.2 8.0 0.00 0.00 0.00 80 1018.5
20240417173656 26 54 3.2 8.0 0.00 0.00 0.00 80 1018.5
20240417173555 26 135 3.2 8.0 0.00 0.00 0.00 80 1018.6
20240417173457 26 154 3.2 8.0 0.00 0.00 0.00 80 1018.5
20240417173355 26 0 1.6 8.0 0.00 0.00 0.00 80 1018.5
20240417173254 26 61 3.2 8.0 0.00 0.00 0.00 80 1018.5
20240417173156 26 52 3.2 8.0 0.00 0.00 0.00 80 1018.5
20240417173056 26 3 3.2 11.3 0.00 0.00 0.00 81 1018.5
20240417172957 26 63 1.6 11.3 0.00 0.00 0.00 80 1018.6
20240417172856 26 85 3.2 11.3 0.00 0.00 0.00 80 1018.5
20240417172755 26 109 3.2 11.3 0.00 0.00 0.00 80 1018.5
20240417172655 26 0 3.2 11.3 0.00 0.00 0.00 80 1018.5
20240417172555 26 63 1.6 11.3 0.00 0.00 0.00 81 1018.5
20240417172457 26 82 1.6 11.3 0.00 0.00 0.00 80 1018.5
20240417172356 26 82 1.6 11.3 0.00 0.00 0.00 81 1018.6
20240417172254 26 82 3.2 11.3 0.00 0.00 0.00 81 1018.7
20240417172154 26 131 4.8 11.3 0.00 0.00 0.00 81 1018.6
20240417172055 26 38 4.8 11.3 0.00 0.00 0.00 81 1018.6
20240417171955 26 73 4.8 11.3 0.00 0.00 0.00 80 1018.6
20240417171855 26 52 6.4 11.3 0.00 0.00 0.00 81 1018.6
20240417171756 26 152 6.4 11.3 0.00 0.00 0.00 81 1018.7
20240417171655 26 227 3.2 9.7 0.00 0.00 0.00 81 1018.7
20240417171555 26 0 1.6 9.7 0.00 0.00 0.00 81 1018.6
20240417171455 26 130 1.6 9.7 0.00 0.00 0.00 81 1018.6
20240417171355 26 120 4.8 9.7 0.00 0.00 0.00 81 1018.6
20240417171256 26 118 4.8 9.7 0.00 0.00 0.00 81 1018.6
20240417171155 26 34 1.6 9.7 0.00 0.00 0.00 81 1018.6
20240417171054 26 34 1.6 9.7 0.00 0.00 0.00 81 1018.5
20240417170956 26 75 3.2 9.7 0.00 0.00 0.00 80 1018.5
20240417170856 26 178 6.4 9.7 0.00 0.00 0.00 80 1018.5
20240417170755 26 135 3.2 8.0 0.00 0.00 0.00 80 1018.5
20240417170645 26 30 3.2 8.0 0.00 0.00 0.00 81 1018.6
20240417170544 26 89 3.2 8.0 0.00 0.00 0.00 81 1018.6
20240417170444 26 107 3.2 8.0 0.00 0.00 0.00 81 1018.6
20240417170332 26 61 3.2 8.0 0.00 0.00 0.00 81 1018.6
20240417170225 26 38 3.2 8.0 0.00 0.00 0.00 81 1018.7
20240417170114 26 52 3.2 8.0 0.00 0.00 0.00 81 1018.6
20240417170010 26 47 3.2 8.0 0.00 0.00 0.00 81 1018.5
20240417165906 26 54 3.2 8.0 0.00 0.00 0.00 82 1018.6
20240417165802 26 73 4.8 8.0 0.00 0.00 0.00 82 1018.5
20240417165703 26 54 3.2 8.0 0.00 0.00 0.00 82 1018.6
20240417165602 26 164 3.2 6.4 0.00 0.00 0.00 83 1018.6
20240417165503 26 141 1.6 6.4 0.00 0.00 0.00 83 1018.4
20240417165403 26 148 1.6 6.4 0.00 0.00 0.00 83 1018.5
20240417165302 26 148 3.2 6.4 0.00 0.00 0.00 82 1018.4
20240417165202 25 73 3.2 6.4 0.00 0.00 0.00 83 1018.5
20240417165103 26 213 1.6 6.4 0.00 0.00 0.00 83 1018.5
20240417165003 26 289 1.6 6.4 0.00 0.00 0.00 83 1018.5
20240417164903 26 133 3.2 6.4 0.00 0.00 0.00 82 1018.5
20240417164802 25 133 3.2 6.4 0.00 0.00 0.00 82 1018.6
20240417164704 25 155 1.6 6.4 0.00 0.00 0.00 82 1018.7
20240417164603 25 166 3.2 6.4 0.00 0.00 0.00 82 1018.7
20240417164504 26 148 1.6 6.4 0.00 0.00 0.00 82 1018.7
20240417164402 26 155 1.6 6.4 0.00 0.00 0.00 83 1018.8
20240417164303 26 165 1.6 6.4 0.00 0.00 0.00 83 1018.7
20240417164201 25 113 1.6 6.4 0.00 0.00 0.00 83 1018.7
20240417164102 25 56 3.2 6.4 0.00 0.00 0.00 82 1018.7
20240417164004 25 155 1.6 6.4 0.00 0.00 0.00 83 1018.7
20240417163904 25 125 1.6 6.4 0.00 0.00 0.00 83 1018.7
20240417163803 25 141 3.2 6.4 0.00 0.00 0.00 83 1018.9
20240417163703 25 149 3.2 6.4 0.00 0.00 0.00 82 1018.8
20240417163602 25 69 3.2 6.4 0.00 0.00 0.00 82 1018.9
20240417163505 25 111 3.2 6.4 0.00 0.00 0.00 83 1018.9
20240417163403 25 100 1.6 6.4 0.00 0.00 0.00 83 1018.9
20240417163302 25 63 3.2 6.4 0.00 0.00 0.00 83 1018.9
20240417163203 25 62 4.8 6.4 0.00 0.00 0.00 83 1019.0
20240417163103 25 52 3.2 6.4 0.00 0.00 0.00 83 1019.0
20240417163002 25 121 1.6 6.4 0.00 0.00 0.00 83 1019.0
20240417162902 25 244 3.2 6.4 0.00 0.00 0.00 83 1018.9
20240417162803 25 245 3.2 6.4 0.00 0.00 0.00 83 1018.8
20240417162702 25 107 3.2 6.4 0.00 0.00 0.00 83 1018.9
20240417162603 25 350 3.2 6.4 0.00 0.00 0.00 84 1018.8